Observation data for Fort Lancaster on 12/08/2018      Previous  Date       Current Mesonet Observations  Soil Data  Daily Summary Page  Observations in Plain Language
KLA1 080600Z 36006KT 04/04 A3021 RMK A01 T00420042  RH  100%=      5-min Rain = 0
KLA1 080601Z 35006KT 04/04 A3021 RMK A01 T00420042  RH  100%=      5-min Rain = 0
KLA1 080602Z 36004KT 04/04 A3021 RMK A01 T00420042  RH  100%=      5-min Rain = 0
KLA1 080603Z 33002KT 04/04 A3021 RMK A01 T00420042  RH  100%=      5-min Rain = 0
KLA1 080604Z 33001KT 04/04 A3021 RMK A01 T00420041  RH  100%=      5-min Rain = 0
KLA1 080605Z 34003KT 04/04 A3021 RMK A01 T00420042  RH  100%=      5-min Rain = 0
KLA1 080606Z 32004KT 04/04 A3022 RMK A01 T00420042  RH  100%=      5-min Rain = 0
KLA1 080607Z 31003KT 04/04 A3022 RMK A01 T00420041  RH  100%=      5-min Rain = 0
KLA1 080608Z 32005KT 04/04 A3022 RMK A01 T00420041  RH  100%=      5-min Rain = 0
KLA1 080609Z 33005KT 04/04 A3021 RMK A01 T00420042  RH  100%=      5-min Rain = 0
KLA1 080610Z 32004KT 04/04 A3022 RMK A01 T00420042  RH  100%=      5-min Rain = 0
KLA1 080611Z 31003KT 04/04 A3022 RMK A01 T00420042  RH  100%=      5-min Rain = 0
KLA1 080612Z 30005KT 04/04 A3022 RMK A01 T00420042  RH  100%=      5-min Rain = 0
KLA1 080613Z 31004KT 04/04 A3022 RMK A01 T00420042  RH  100%=      5-min Rain = 0
KLA1 080614Z 32003KT 04/04 A3021 RMK A01 T00420042  RH  100%=      5-min Rain = 0
KLA1 080615Z 34002KT 04/04 A3021 RMK A01 T00420042  RH  100%=      5-min Rain = 0
KLA1 080616Z 34003KT 04/04 A3021 RMK A01 T00420042  RH  100%=      5-min Rain = 0
KLA1 080617Z 00003KT 04/04 A3021 RMK A01 T00420042  RH  100%=      5-min Rain = 0
KLA1 080618Z 36004KT 04/04 A3021 RMK A01 T00420042  RH  100%=      5-min Rain = 0
KLA1 080619Z 34003KT 04/04 A3021 RMK A01 T00420042  RH  100%=      5-min Rain = 0
KLA1 080620Z 32003KT 04/04 A302 RMK A01 T00410041  RH  100%=      5-min Rain = 0
KLA1 080621Z 33003KT 04/04 A302 RMK A01 T00410041  RH  100%=      5-min Rain = 0
KLA1 080622Z 33005KT 04/04 A302 RMK A01 T00410041  RH  100%=      5-min Rain = 0
KLA1 080623Z 34004KT 04/04 A302 RMK A01 T00410041  RH  100%=      5-min Rain = 0.01
KLA1 080624Z 33004KT 04/04 A302 RMK A01 T00410041  RH  100%=      5-min Rain = 0
KLA1 080625Z 34004KT 04/04 A302 RMK A01 T00410041  RH  100%=      5-min Rain = 0
KLA1 080626Z 36004KT 04/04 A302 RMK A01 T00410041  RH  100%=      5-min Rain = 0
KLA1 080627Z 36005KT 04/04 A302 RMK A01 T00410041  RH  100%=      5-min Rain = 0
KLA1 080628Z 34004KT 04/04 A302 RMK A01 T00410041  RH  100%=      5-min Rain = 0
KLA1 080629Z 34004KT 04/04 A302 RMK A01 T00410041  RH  100%=      5-min Rain = 0
KLA1 080630Z 34003KT 04/04 A302 RMK A01 T00410041  RH  100%=      5-min Rain = 0
KLA1 080631Z 34001KT 04/04 A302 RMK A01 T00410041  RH  100%=      5-min Rain = 0
KLA1 080632Z 30002KT 04/04 A302 RMK A01 T00410041  RH  100%=      5-min Rain = 0
KLA1 080633Z 31004KT 04/04 A302 RMK A01 T00410041  RH  100%=      5-min Rain = 0
KLA1 080634Z 31005KT 04/04 A302 RMK A01 T00410041  RH  100%=      5-min Rain = 0
KLA1 080635Z 34004KT 04/04 A302 RMK A01 T00410041  RH  100%=      5-min Rain = 0
KLA1 080636Z 32005KT 04/04 A302 RMK A01 T00410040  RH  100%=      5-min Rain = 0
KLA1 080637Z 35005KT 04/04 A302 RMK A01 T00410041  RH  100%=      5-min Rain = 0
KLA1 080638Z 34003KT 04/04 A302 RMK A01 T00410041  RH  100%=      5-min Rain = 0
KLA1 080639Z 32002KT 04/04 A302 RMK A01 T00410041  RH  100%=      5-min Rain = 0
KLA1 080640Z 32003KT 04/04 A302 RMK A01 T00410041  RH  100%=      5-min Rain = 0
KLA1 080641Z 33004KT 04/04 A302 RMK A01 T00410041  RH  100%=      5-min Rain = 0
KLA1 080642Z 33005KT 04/04 A302 RMK A01 T00410040  RH  100%=      5-min Rain = 0
KLA1 080643Z 32004KT 04/04 A302 RMK A01 T00410041  RH  100%=      5-min Rain = 0
KLA1 080644Z 34005KT 04/04 A302 RMK A01 T00410041  RH  100%=      5-min Rain = 0
KLA1 080645Z 33004KT 04/04 A302 RMK A01 T00410041  RH  100%=      5-min Rain = 0
KLA1 080646Z 33004KT 04/04 A302 RMK A01 T00410041  RH  100%=      5-min Rain = 0
KLA1 080647Z 33003KT 04/04 A302 RMK A01 T00410041  RH  100%=      5-min Rain = 0
KLA1 080648Z 30004KT 04/04 A302 RMK A01 T00410041  RH  100%=      5-min Rain = 0
KLA1 080649Z 31005KT 04/04 A302 RMK A01 T00410041  RH  100%=      5-min Rain = 0
KLA1 080650Z 31005KT 04/04 A302 RMK A01 T00410041  RH  100%=      5-min Rain = 0
KLA1 080651Z 31007KT 04/04 A302 RMK A01 T00410041  RH  100%=      5-min Rain = 0.01
KLA1 080652Z 32007KT 04/04 A302 RMK A01 T00410041  RH  100%=      5-min Rain = 0
KLA1 080653Z 31006KT 04/04 A302 RMK A01 T00410041  RH  100%=      5-min Rain = 0
KLA1 080654Z 31006KT 04/04 A302 RMK A01 T00410041  RH  100%=      5-min Rain = 0
KLA1 080655Z 30006KT 04/04 A302 RMK A01 T00410041  RH  100%=      5-min Rain = 0
KLA1 080656Z 31004KT 04/04 A302 RMK A01 T00410041  RH  100%=      5-min Rain = 0
KLA1 080657Z 32007KT 04/04 A302 RMK A01 T00410041  RH  100%=      5-min Rain = 0
KLA1 080658Z 32007KT 04/04 A302 RMK A01 T00410041  RH  100%=      5-min Rain = 0
KLA1 080659Z 32005KT 04/04 A302 RMK A01 T00410041  RH  100%=      5-min Rain = 0
KLA1 080700Z 32007KT 04/04 A302 RMK A01 T00410041  RH  100%=      5-min Rain = 0
KLA1 080701Z 31006KT 04/04 A302 RMK A01 T00410041  RH  100%=      5-min Rain = 0
KLA1 080702Z 33004KT 04/04 A302 RMK A01 T00410041  RH  100%=      5-min Rain = 0
KLA1 080703Z 32004KT 04/04 A302 RMK A01 T00410041  RH  100%=      5-min Rain = 0
KLA1 080704Z 32005KT 04/04 A302 RMK A01 T00410041  RH  100%=      5-min Rain = 0
KLA1 080705Z 32004KT 04/04 A302 RMK A01 T00410041  RH  100%=      5-min Rain = 0
KLA1 080706Z 31005KT 04/04 A302 RMK A01 T00410041  RH  100%=      5-min Rain = 0
KLA1 080707Z 32007KT 04/04 A302 RMK A01 T00410041  RH  100%=      5-min Rain = 0
KLA1 080708Z 32004KT 04/04 A302 RMK A01 T00410041  RH  100%=      5-min Rain = 0
KLA1 080709Z 32005KT 04/04 A302 RMK A01 T00410041  RH  100%=      5-min Rain = 0
KLA1 080710Z 34004KT 04/04 A302 RMK A01 T00410041  RH  100%=      5-min Rain = 0
KLA1 080711Z 35004KT 04/04 A302 RMK A01 T00410041  RH  100%=      5-min Rain = 0
KLA1 080712Z 34004KT 04/04 A302 RMK A01 T00410041  RH  100%=      5-min Rain = 0
KLA1 080713Z 36003KT 04/04 A302 RMK A01 T00410041  RH  100%=      5-min Rain = 0
KLA1 080714Z 35003KT 04/04 A302 RMK A01 T00410041  RH  100%=      5-min Rain = 0
KLA1 080715Z 35002KT 04/04 A302 RMK A01 T00410041  RH  100%=      5-min Rain = 0
KLA1 080716Z 33003KT 04/04 A302 RMK A01 T00410041  RH  100%=      5-min Rain = 0
KLA1 080717Z 32003KT 04/04 A302 RMK A01 T00410041  RH  100%=      5-min Rain = 0
KLA1 080718Z 33003KT 04/04 A302 RMK A01 T00410041  RH  100%=      5-min Rain = 0
KLA1 080719Z 34003KT 04/04 A302 RMK A01 T00410041  RH  100%=      5-min Rain = 0
KLA1 080720Z 31003KT 04/04 A302 RMK A01 T00410041  RH  100%=      5-min Rain = 0
KLA1 080721Z 32003KT 04/04 A302 RMK A01 T00410041  RH  100%=      5-min Rain = 0
KLA1 080722Z 32004KT 04/04 A302 RMK A01 T00410041  RH  100%=      5-min Rain = 0
KLA1 080723Z 33002KT 04/04 A302 RMK A01 T00410041  RH  100%=      5-min Rain = 0
KLA1 080724Z 34000KT 04/04 A302 RMK A01 T00410041  RH  100%=      5-min Rain = 0
KLA1 080725Z 33002KT 04/04 A302 RMK A01 T00410041  RH  100%=      5-min Rain = 0
KLA1 080726Z 32002KT 04/04 A302 RMK A01 T00410041  RH  100%=      5-min Rain = 0
KLA1 080727Z 31003KT 04/04 A302 RMK A01 T00410041  RH  100%=      5-min Rain = 0
KLA1 080728Z 31004KT 04/04 A302 RMK A01 T00410041  RH  100%=      5-min Rain = 0
KLA1 080729Z 34003KT 04/04 A302 RMK A01 T00410041  RH  100%=      5-min Rain = 0
KLA1 080730Z 31004KT 04/04 A302 RMK A01 T00410041  RH  100%=      5-min Rain = 0
KLA1 080731Z 31004KT 04/04 A302 RMK A01 T00410041  RH  100%=      5-min Rain = 0
KLA1 080732Z 34004KT 04/04 A302 RMK A01 T00410041  RH  100%=      5-min Rain = 0
KLA1 080733Z 32004KT 04/04 A302 RMK A01 T00410041  RH  100%=      5-min Rain = 0
KLA1 080734Z 34004KT 04/04 A302 RMK A01 T00410041  RH  100%=      5-min Rain = 0
KLA1 080735Z 33006KT 04/04 A302 RMK A01 T00410041  RH  100%=      5-min Rain = 0
KLA1 080736Z 33003KT 04/04 A302 RMK A01 T00410041  RH  100%=      5-min Rain = 0
KLA1 080737Z 35004KT 04/04 A302 RMK A01 T00410041  RH  100%=      5-min Rain = 0
KLA1 080738Z 33004KT 04/04 A302 RMK A01 T00410041  RH  100%=      5-min Rain = 0
KLA1 080739Z 35005KT 04/04 A302 RMK A01 T00410041  RH  100%=      5-min Rain = 0
KLA1 080740Z 35004KT 04/04 A302 RMK A01 T00410041  RH  100%=      5-min Rain = 0
KLA1 080741Z 35004KT 04/04 A302 RMK A01 T00410041  RH  100%=      5-min Rain = 0
KLA1 080742Z 35004KT 04/04 A302 RMK A01 T00410041  RH  100%=      5-min Rain = 0
KLA1 080743Z 34005KT 04/04 A302 RMK A01 T00410041  RH  100%=      5-min Rain = 0
KLA1 080744Z 33005KT 04/04 A302 RMK A01 T00410041  RH  100%=      5-min Rain = 0
KLA1 080745Z 34005KT 04/04 A302 RMK A01 T00410041  RH  100%=      5-min Rain = 0
KLA1 080746Z 35004KT 04/04 A302 RMK A01 T00410041  RH  100%=      5-min Rain = 0
KLA1 080747Z 34004KT 04/04 A302 RMK A01 T00410041  RH  100%=      5-min Rain = 0
KLA1 080748Z 31003KT 04/04 A302 RMK A01 T00410041  RH  100%=      5-min Rain = 0
KLA1 080749Z 31004KT 04/04 A302 RMK A01 T00410040  RH  100%=      5-min Rain = 0
KLA1 080750Z 33003KT 04/04 A302 RMK A01 T00410041  RH  100%=      5-min Rain = 0
KLA1 080751Z 33004KT 04/04 A302 RMK A01 T00410041  RH  100%=      5-min Rain = 0
KLA1 080752Z 36003KT 04/04 A302 RMK A01 T00410041  RH  100%=      5-min Rain = 0
KLA1 080753Z 36006KT 04/04 A302 RMK A01 T00410040  RH  100%=      5-min Rain = 0
KLA1 080754Z 35006KT 04/04 A302 RMK A01 T00410040  RH  100%=      5-min Rain = 0
KLA1 080755Z 34007KT 04/04 A302 RMK A01 T00410041  RH  100%=      5-min Rain = 0
KLA1 080756Z 35007KT 04/04 A302 RMK A01 T00410040  RH  100%=      5-min Rain = 0.01
KLA1 080757Z 34006KT 04/04 A302 RMK A01 T00400040  RH  100%=      5-min Rain = 0
KLA1 080758Z 35006KT 04/04 A302 RMK A01 T00400040  RH  100%=      5-min Rain = 0
KLA1 080759Z 35006KT 04/04 A302 RMK A01 T00400040  RH  100%=      5-min Rain = 0
KLA1 080800Z 35005KT 04/04 A302 RMK A01 T00400040  RH  100%=      5-min Rain = 0
KLA1 080801Z 36008KT 04/04 A302 RMK A01 T00400040  RH  100%=      5-min Rain = 0
KLA1 080802Z 34005KT 04/04 A302 RMK A01 T00400040  RH  100%=      5-min Rain = 0
KLA1 080803Z 35006KT 04/04 A302 RMK A01 T00400040  RH  100%=      5-min Rain = 0
KLA1 080804Z 35006KT 04/04 A302 RMK A01 T00400040  RH  100%=      5-min Rain = 0
KLA1 080805Z 34005KT 04/04 A302 RMK A01 T00400040  RH  100%=      5-min Rain = 0
KLA1 080806Z 34004KT 04/04 A302 RMK A01 T00400040  RH  100%=      5-min Rain = 0
KLA1 080807Z 33004KT 04/04 A302 RMK A01 T00400040  RH  100%=      5-min Rain = 0
KLA1 080808Z 35006KT 04/04 A302 RMK A01 T00400040  RH  100%=      5-min Rain = 0
KLA1 080809Z 35006KT 04/04 A302 RMK A01 T00390039  RH  100%=      5-min Rain = 0
KLA1 080810Z 34003KT 04/04 A302 RMK A01 T00390039  RH  100%=      5-min Rain = 0
KLA1 080811Z 34003KT 04/04 A302 RMK A01 T00390039  RH  100%=      5-min Rain = 0
KLA1 080812Z 35005KT 04/04 A302 RMK A01 T00390039  RH  100%=      5-min Rain = 0
KLA1 080813Z 34007KT 04/04 A302 RMK A01 T00390039  RH  100%=      5-min Rain = 0
KLA1 080814Z 35006KT 04/04 A302 RMK A01 T00380038  RH  100%=      5-min Rain = 0
KLA1 080815Z 35006KT 04/04 A302 RMK A01 T00380038  RH  100%=      5-min Rain = 0
KLA1 080816Z 33004KT 04/04 A302 RMK A01 T00380038  RH  100%=      5-min Rain = 0
KLA1 080817Z 35004KT 04/04 A302 RMK A01 T00380038  RH  100%=      5-min Rain = 0
KLA1 080818Z 35007KT 04/04 A302 RMK A01 T00380038  RH  100%=      5-min Rain = 0
KLA1 080819Z 34005KT 04/04 A302 RMK A01 T00380038  RH  100%=      5-min Rain = 0
KLA1 080820Z 34006KT 04/04 A302 RMK A01 T00380038  RH  100%=      5-min Rain = 0
KLA1 080821Z 35006KT 04/04 A302 RMK A01 T00380038  RH  100%=      5-min Rain = 0
KLA1 080822Z 35004KT 04/04 A302 RMK A01 T00380038  RH  100%=      5-min Rain = 0
KLA1 080823Z 36005KT 04/04 A302 RMK A01 T00380038  RH  100%=      5-min Rain = 0
KLA1 080824Z 34003KT 04/04 A302 RMK A01 T00390039  RH  100%=      5-min Rain = 0
KLA1 080825Z 32004KT 04/04 A302 RMK A01 T00390039  RH  100%=      5-min Rain = 0
KLA1 080826Z 33004KT 04/04 A302 RMK A01 T00380038  RH  100%=      5-min Rain = 0
KLA1 080827Z 34005KT 04/04 A302 RMK A01 T00390039  RH  100%=      5-min Rain = 0
KLA1 080828Z 33005KT 04/04 A302 RMK A01 T00390039  RH  100%=      5-min Rain = 0
KLA1 080829Z 32005KT 04/04 A302 RMK A01 T00390039  RH  100%=      5-min Rain = 0
KLA1 080830Z 33005KT 04/04 A302 RMK A01 T00390039  RH  100%=      5-min Rain = 0
KLA1 080831Z 32006KT 04/04 A302 RMK A01 T00390039  RH  100%=      5-min Rain = 0
KLA1 080832Z 32005KT 04/04 A302 RMK A01 T00390039  RH  100%=      5-min Rain = 0
KLA1 080833Z 32007KT 04/04 A302 RMK A01 T00380038  RH  100%=      5-min Rain = 0
KLA1 080834Z 32005KT 04/04 A302 RMK A01 T00380038  RH  100%=      5-min Rain = 0
KLA1 080835Z 32006KT 04/04 A302 RMK A01 T00380038  RH  100%=      5-min Rain = 0
KLA1 080836Z 34005KT 04/04 A302 RMK A01 T00380038  RH  100%=      5-min Rain = 0
KLA1 080837Z 34005KT 04/04 A302 RMK A01 T00380038  RH  100%=      5-min Rain = 0
KLA1 080838Z 34006KT 04/04 A302 RMK A01 T00380038  RH  100%=      5-min Rain = 0
KLA1 080839Z 34006KT 04/04 A302 RMK A01 T00380038  RH  100%=      5-min Rain = 0
KLA1 080840Z 34004KT 04/04 A302 RMK A01 T00380037  RH  100%=      5-min Rain = 0.01
KLA1 080841Z 33005KT 04/04 A302 RMK A01 T00380037  RH  100%=      5-min Rain = 0
KLA1 080842Z 34005KT 04/04 A302 RMK A01 T00370037  RH  100%=      5-min Rain = 0
KLA1 080843Z 34005KT 04/04 A302 RMK A01 T00370037  RH  100%=      5-min Rain = 0
KLA1 080844Z 32004KT 04/04 A302 RMK A01 T00370037  RH  100%=      5-min Rain = 0
KLA1 080845Z 33004KT 04/04 A302 RMK A01 T00370037  RH  100%=      5-min Rain = 0
KLA1 080846Z 34005KT 04/04 A302 RMK A01 T00370037  RH  100%=      5-min Rain = 0
KLA1 080847Z 34003KT 04/04 A302 RMK A01 T00370037  RH  100%=      5-min Rain = 0
KLA1 080848Z 35006KT 04/04 A302 RMK A01 T00370037  RH  100%=      5-min Rain = 0
KLA1 080849Z 34005KT 04/04 A302 RMK A01 T00370037  RH  100%=      5-min Rain = 0
KLA1 080850Z 35004KT 04/04 A302 RMK A01 T00360036  RH  100%=      5-min Rain = 0
KLA1 080851Z 34004KT 04/04 A302 RMK A01 T00370037  RH  100%=      5-min Rain = 0
KLA1 080852Z 35004KT 04/04 A302 RMK A01 T00370036  RH  100%=      5-min Rain = 0
KLA1 080853Z 35006KT 04/04 A302 RMK A01 T00370037  RH  100%=      5-min Rain = 0
KLA1 080854Z 35006KT 04/04 A302 RMK A01 T00360036  RH  100%=      5-min Rain = 0
KLA1 080855Z 35006KT 04/04 A302 RMK A01 T00360036  RH  100%=      5-min Rain = 0
KLA1 080856Z 34004KT 04/04 A302 RMK A01 T00360036  RH  100%=      5-min Rain = 0
KLA1 080857Z 33004KT 04/04 A302 RMK A01 T00360036  RH  100%=      5-min Rain = 0
KLA1 080858Z 35005KT 04/04 A302 RMK A01 T00360036  RH  100%=      5-min Rain = 0
KLA1 080859Z 35006KT 04/04 A302 RMK A01 T00360036  RH  100%=      5-min Rain = 0
KLA1 080900Z 35006KT 04/04 A302 RMK A01 T00360036  RH  100%=      5-min Rain = 0
KLA1 080901Z 35005KT 04/04 A3019 RMK A01 T00360036  RH  100%=      5-min Rain = 0
KLA1 080902Z 35005KT 04/04 A3019 RMK A01 T00360036  RH  100%=      5-min Rain = 0
KLA1 080903Z 33003KT 04/04 A3019 RMK A01 T00360036  RH  100%=      5-min Rain = 0
KLA1 080904Z 33002KT 04/04 A3019 RMK A01 T00360036  RH  100%=      5-min Rain = 0
KLA1 080905Z 35003KT 04/04 A3019 RMK A01 T00360036  RH  100%=      5-min Rain = 0
KLA1 080906Z 35004KT 04/04 A3019 RMK A01 T00360036  RH  100%=      5-min Rain = 0
KLA1 080907Z 34005KT 04/04 A3019 RMK A01 T00360036  RH  100%=      5-min Rain = 0
KLA1 080908Z 34003KT 04/04 A3019 RMK A01 T00360036  RH  100%=      5-min Rain = 0
KLA1 080909Z 34002KT 04/04 A3019 RMK A01 T00360036  RH  100%=      5-min Rain = 0
KLA1 080910Z 32002KT 04/04 A3019 RMK A01 T00360036  RH  100%=      5-min Rain = 0
KLA1 080911Z 33004KT 04/04 A3019 RMK A01 T00360036  RH  100%=      5-min Rain = 0
KLA1 080912Z 34005KT 04/04 A3019 RMK A01 T00360036  RH  100%=      5-min Rain = 0
KLA1 080913Z 34007KT 04/04 A3019 RMK A01 T00360036  RH  100%=      5-min Rain = 0
KLA1 080914Z 33007G12KT 04/04 A3019 RMK A01 T00350035  RH  100%=      5-min Rain = 0
KLA1 080915Z 34009KT 04/04 A3019 RMK A01 T00350035  RH  100%=      5-min Rain = 0
KLA1 080916Z 35005KT 04/04 A3019 RMK A01 T00350035  RH  100%=      5-min Rain = 0
KLA1 080917Z 34005KT 04/04 A3019 RMK A01 T00350035  RH  100%=      5-min Rain = 0
KLA1 080918Z 34004KT 04/04 A3019 RMK A01 T00350035  RH  100%=      5-min Rain = 0
KLA1 080919Z 34005G10KT 04/04 A3018 RMK A01 T00350035  RH  100%=      5-min Rain = 0
KLA1 080920Z 34007KT 04/04 A3018 RMK A01 T00350035  RH  100%=      5-min Rain = 0
KLA1 080921Z 36005KT 04/04 A3018 RMK A01 T00350035  RH  100%=      5-min Rain = 0.01
KLA1 080922Z 34006KT 04/04 A3018 RMK A01 T00350035  RH  100%=      5-min Rain = 0
KLA1 080923Z 34007KT 04/04 A3018 RMK A01 T00350035  RH  100%=      5-min Rain = 0
KLA1 080924Z 33004KT 04/04 A3018 RMK A01 T00350035  RH  100%=      5-min Rain = 0
KLA1 080925Z 32003KT 04/04 A3018 RMK A01 T00350035  RH  100%=      5-min Rain = 0
KLA1 080926Z 31002KT 04/04 A3019 RMK A01 T00350035  RH  100%=      5-min Rain = 0
KLA1 080927Z 31002KT 04/04 A3019 RMK A01 T00350035  RH  100%=      5-min Rain = 0
KLA1 080928Z 32004KT 04/04 A3019 RMK A01 T00350035  RH  100%=      5-min Rain = 0
KLA1 080929Z 34003KT 04/04 A3019 RMK A01 T00350035  RH  100%=      5-min Rain = 0
KLA1 080930Z 30004KT 04/04 A3019 RMK A01 T00350035  RH  100%=      5-min Rain = 0
KLA1 080931Z 31004KT 04/04 A3019 RMK A01 T00350035  RH  100%=      5-min Rain = 0
KLA1 080932Z 27003KT 04/04 A3019 RMK A01 T00350035  RH  100%=      5-min Rain = 0
KLA1 080933Z 31006KT 04/04 A3019 RMK A01 T00350035  RH  100%=      5-min Rain = 0
KLA1 080934Z 31004KT 04/04 A3019 RMK A01 T00350035  RH  100%=      5-min Rain = 0
KLA1 080935Z 30003KT 04/04 A3019 RMK A01 T00350035  RH  100%=      5-min Rain = 0
KLA1 080936Z 29004KT 04/04 A3019 RMK A01 T00350035  RH  100%=      5-min Rain = 0
KLA1 080937Z 29005KT 04/04 A3019 RMK A01 T00350035  RH  100%=      5-min Rain = 0
KLA1 080938Z 29004KT 04/04 A3019 RMK A01 T00360036  RH  100%=      5-min Rain = 0
KLA1 080939Z 28002KT 04/04 A3019 RMK A01 T00350035  RH  100%=      5-min Rain = 0
KLA1 080940Z 27003KT 04/04 A3019 RMK A01 T00350035  RH  100%=      5-min Rain = 0
KLA1 080941Z 28004KT 04/04 A302 RMK A01 T00350035  RH  100%=      5-min Rain = 0
KLA1 080942Z 28005KT 04/04 A302 RMK A01 T00350035  RH  100%=      5-min Rain = 0
KLA1 080943Z 29004KT 04/04 A302 RMK A01 T00350035  RH  100%=      5-min Rain = 0
KLA1 080944Z 30004KT 04/04 A302 RMK A01 T00350035  RH  100%=      5-min Rain = 0
KLA1 080945Z 30004KT 04/04 A302 RMK A01 T00350035  RH  100%=      5-min Rain = 0
KLA1 080946Z 29003KT 04/04 A302 RMK A01 T00350035  RH  100%=      5-min Rain = 0
KLA1 080947Z 28003KT 04/04 A302 RMK A01 T00350035  RH  100%=      5-min Rain = 0
KLA1 080948Z 29003KT 04/04 A302 RMK A01 T00350035  RH  100%=      5-min Rain = 0
KLA1 080949Z 29004KT 04/04 A302 RMK A01 T00350035  RH  100%=      5-min Rain = 0
KLA1 080950Z 27002KT 04/03 A302 RMK A01 T00350034  RH  100%=      5-min Rain = 0
KLA1 080951Z 27003KT 04/04 A302 RMK A01 T00350035  RH  100%=      5-min Rain = 0
KLA1 080952Z 28004KT 04/04 A302 RMK A01 T00350035  RH  100%=      5-min Rain = 0
KLA1 080953Z 31004KT 04/04 A302 RMK A01 T00350035  RH  100%=      5-min Rain = 0
KLA1 080954Z 33003KT 04/04 A302 RMK A01 T00350035  RH  100%=      5-min Rain = 0
KLA1 080955Z 31003KT 04/04 A302 RMK A01 T00350035  RH  100%=      5-min Rain = 0.01
KLA1 080956Z 31003KT 04/04 A302 RMK A01 T00350035  RH  100%=      5-min Rain = 0
KLA1 080957Z 30002KT 04/03 A302 RMK A01 T00350034  RH  100%=      5-min Rain = 0
KLA1 080958Z 29004KT 04/04 A302 RMK A01 T00350035  RH  100%=      5-min Rain = 0
KLA1 080959Z 30006KT 04/04 A302 RMK A01 T00350035  RH  100%=      5-min Rain = 0
KLA1 081000Z 30005KT 04/04 A302 RMK A01 T00350035  RH  100%=      5-min Rain = 0
KLA1 081001Z 30005KT 04/04 A302 RMK A01 T00350035  RH  100%=      5-min Rain = 0
KLA1 081002Z 30004KT 04/04 A302 RMK A01 T00350035  RH  100%=      5-min Rain = 0
KLA1 081003Z 32004KT 04/04 A302 RMK A01 T00350035  RH  100%=      5-min Rain = 0
KLA1 081004Z 31004KT 04/04 A302 RMK A01 T00350035  RH  100%=      5-min Rain = 0
KLA1 081005Z 31004KT 04/04 A302 RMK A01 T00350035  RH  100%=      5-min Rain = 0
KLA1 081006Z 30004KT 04/04 A302 RMK A01 T00350035  RH  100%=      5-min Rain = 0
KLA1 081007Z 31003KT 04/04 A302 RMK A01 T00350035  RH  100%=      5-min Rain = 0
KLA1 081008Z 31004KT 04/04 A302 RMK A01 T00350035  RH  100%=      5-min Rain = 0
KLA1 081009Z 32004KT 04/04 A302 RMK A01 T00350035  RH  100%=      5-min Rain = 0
KLA1 081010Z 33003KT 04/04 A302 RMK A01 T00350035  RH  100%=      5-min Rain = 0
KLA1 081011Z 32004KT 04/04 A302 RMK A01 T00350035  RH  100%=      5-min Rain = 0
KLA1 081012Z 32004KT 04/04 A302 RMK A01 T00350035  RH  100%=      5-min Rain = 0
KLA1 081013Z 32004KT 04/04 A3021 RMK A01 T00350035  RH  100%=      5-min Rain = 0
KLA1 081014Z 35003KT 04/04 A3021 RMK A01 T00350035  RH  100%=      5-min Rain = 0
KLA1 081015Z 33003KT 04/04 A3021 RMK A01 T00350035  RH  100%=      5-min Rain = 0
KLA1 081016Z 33002KT 04/04 A302 RMK A01 T00350035  RH  100%=      5-min Rain = 0
KLA1 081017Z 33003KT 04/04 A302 RMK A01 T00350035  RH  100%=      5-min Rain = 0
KLA1 081018Z 32002KT 04/04 A302 RMK A01 T00350035  RH  100%=      5-min Rain = 0
KLA1 081019Z 33001KT 04/04 A302 RMK A01 T00350035  RH  100%=      5-min Rain = 0
KLA1 081020Z 31003KT 04/04 A302 RMK A01 T00350035  RH  100%=      5-min Rain = 0
KLA1 081021Z 31004KT 04/04 A302 RMK A01 T00350035  RH  100%=      5-min Rain = 0
KLA1 081022Z 34002KT 04/04 A302 RMK A01 T00350035  RH  100%=      5-min Rain = 0
KLA1 081023Z 33003KT 04/04 A302 RMK A01 T00350035  RH  100%=      5-min Rain = 0
KLA1 081024Z 31004KT 04/04 A302 RMK A01 T00350035  RH  100%=      5-min Rain = 0
KLA1 081025Z 31004KT 04/04 A302 RMK A01 T00350035  RH  100%=      5-min Rain = 0
KLA1 081026Z 31005KT 04/04 A302 RMK A01 T00350035  RH  100%=      5-min Rain = 0
KLA1 081027Z 33003KT 04/04 A302 RMK A01 T00350035  RH  100%=      5-min Rain = 0
KLA1 081028Z 32003KT 04/04 A302 RMK A01 T00350035  RH  100%=      5-min Rain = 0
KLA1 081029Z 33003KT 04/04 A302 RMK A01 T00350035  RH  100%=      5-min Rain = 0
KLA1 081030Z 33003KT 04/04 A302 RMK A01 T00360036  RH  100%=      5-min Rain = 0
KLA1 081031Z 33003KT 04/04 A302 RMK A01 T00350035  RH  100%=      5-min Rain = 0
KLA1 081032Z 33003KT 04/04 A302 RMK A01 T00350035  RH  100%=      5-min Rain = 0
KLA1 081033Z 32005KT 04/04 A302 RMK A01 T00350035  RH  100%=      5-min Rain = 0
KLA1 081034Z 32005KT 04/04 A302 RMK A01 T00350035  RH  100%=      5-min Rain = 0
KLA1 081035Z 35005KT 04/04 A302 RMK A01 T00350035  RH  100%=      5-min Rain = 0
KLA1 081036Z 34003KT 03/03 A302 RMK A01 T00340034  RH  100%=      5-min Rain = 0
KLA1 081037Z 33004KT 04/04 A302 RMK A01 T00350035  RH  100%=      5-min Rain = 0.01
KLA1 081038Z 32003KT 04/04 A3021 RMK A01 T00350035  RH  100%=      5-min Rain = 0
KLA1 081039Z 32004KT 04/04 A3021 RMK A01 T00350035  RH  100%=      5-min Rain = 0
KLA1 081040Z 33004KT 04/04 A3021 RMK A01 T00350035  RH  100%=      5-min Rain = 0
KLA1 081041Z 33003KT 04/04 A3021 RMK A01 T00350035  RH  100%=      5-min Rain = 0
KLA1 081042Z 35005KT 04/04 A3021 RMK A01 T00350035  RH  100%=      5-min Rain = 0
KLA1 081043Z 32003KT 04/04 A3021 RMK A01 T00350035  RH  100%=      5-min Rain = 0
KLA1 081044Z 35004KT 04/03 A3021 RMK A01 T00350034  RH  100%=      5-min Rain = 0
KLA1 081045Z 34006KT 04/04 A302 RMK A01 T00350035  RH  100%=      5-min Rain = 0
KLA1 081046Z 34005KT 04/04 A3021 RMK A01 T00350035  RH  100%=      5-min Rain = 0
KLA1 081047Z 33004KT 04/04 A3021 RMK A01 T00350035  RH  100%=      5-min Rain = 0
KLA1 081048Z 34005KT 04/04 A3021 RMK A01 T00350035  RH  100%=      5-min Rain = 0.01
KLA1 081049Z 35005KT 04/04 A3021 RMK A01 T00350035  RH  100%=      5-min Rain = 0
KLA1 081050Z 35006KT 04/04 A302 RMK A01 T00350035  RH  100%=      5-min Rain = 0
KLA1 081051Z 35006KT 04/04 A302 RMK A01 T00350035  RH  100%=      5-min Rain = 0
KLA1 081052Z 34006KT 04/04 A302 RMK A01 T00350035  RH  100%=      5-min Rain = 0
KLA1 081053Z 35006KT 04/04 A302 RMK A01 T00350035  RH  100%=      5-min Rain = 0
KLA1 081054Z 34006KT 04/03 A302 RMK A01 T00350034  RH  100%=      5-min Rain = 0
KLA1 081055Z 35006KT 04/04 A3021 RMK A01 T00350035  RH  100%=      5-min Rain = 0
KLA1 081056Z 34004KT 04/04 A3021 RMK A01 T00350035  RH  100%=      5-min Rain = 0
KLA1 081057Z 34006KT 04/04 A3021 RMK A01 T00350035  RH  100%=      5-min Rain = 0
KLA1 081058Z 35006KT 04/04 A3021 RMK A01 T00350035  RH  100%=      5-min Rain = 0
KLA1 081059Z 34006KT 04/04 A3021 RMK A01 T00350035  RH  100%=      5-min Rain = 0
KLA1 081100Z 34006KT 04/04 A302 RMK A01 T00350035  RH  100%=      5-min Rain = 0
KLA1 081101Z 34006KT 04/04 A302 RMK A01 T00350035  RH  100%=      5-min Rain = 0
KLA1 081102Z 35006KT 04/04 A302 RMK A01 T00350035  RH  100%=      5-min Rain = 0
KLA1 081103Z 34005KT 04/04 A302 RMK A01 T00350035  RH  100%=      5-min Rain = 0
KLA1 081104Z 35005KT 04/04 A302 RMK A01 T00350035  RH  100%=      5-min Rain = 0
KLA1 081105Z 35006KT 04/04 A302 RMK A01 T00350035  RH  100%=      5-min Rain = 0
KLA1 081106Z 34005KT 04/04 A302 RMK A01 T00350035  RH  100%=      5-min Rain = 0
KLA1 081107Z 34006KT 04/04 A302 RMK A01 T00350035  RH  100%=      5-min Rain = 0
KLA1 081108Z 34006KT 04/04 A302 RMK A01 T00350035  RH  100%=      5-min Rain = 0
KLA1 081109Z 34007KT 04/04 A302 RMK A01 T00350035  RH  100%=      5-min Rain = 0
KLA1 081110Z 34006KT 04/04 A302 RMK A01 T00350035  RH  100%=      5-min Rain = 0
KLA1 081111Z 34005KT 04/04 A302 RMK A01 T00360036  RH  100%=      5-min Rain = 0
KLA1 081112Z 34006KT 04/04 A302 RMK A01 T00360036  RH  100%=      5-min Rain = 0
KLA1 081113Z 34006KT 04/04 A302 RMK A01 T00360036  RH  100%=      5-min Rain = 0
KLA1 081114Z 34006KT 04/04 A302 RMK A01 T00360035  RH  100%=      5-min Rain = 0
KLA1 081115Z 35005KT 04/04 A302 RMK A01 T00350035  RH  100%=      5-min Rain = 0
KLA1 081116Z 34005KT 04/04 A302 RMK A01 T00360035  RH  100%=      5-min Rain = 0
KLA1 081117Z 35005KT 04/04 A3021 RMK A01 T00360036  RH  100%=      5-min Rain = 0
KLA1 081118Z 35007KT 04/04 A3021 RMK A01 T00360036  RH  100%=      5-min Rain = 0
KLA1 081119Z 34007KT 04/04 A3021 RMK A01 T00360036  RH  100%=      5-min Rain = 0
KLA1 081120Z 33007KT 04/04 A3021 RMK A01 T00360036  RH  100%=      5-min Rain = 0
KLA1 081121Z 33006KT 04/04 A3021 RMK A01 T00360036  RH  100%=      5-min Rain = 0
KLA1 081122Z 33006KT 04/04 A3021 RMK A01 T00360035  RH  100%=      5-min Rain = 0
KLA1 081123Z 32006KT 04/04 A3021 RMK A01 T00360036  RH  100%=      5-min Rain = 0
KLA1 081124Z 34005KT 04/04 A3021 RMK A01 T00360036  RH  100%=      5-min Rain = 0
KLA1 081125Z 34006KT 04/04 A3021 RMK A01 T00360036  RH  100%=      5-min Rain = 0
KLA1 081126Z 35006KT 04/04 A3021 RMK A01 T00360036  RH  100%=      5-min Rain = 0
KLA1 081127Z 34005KT 04/04 A3021 RMK A01 T00350035  RH  100%=      5-min Rain = 0
KLA1 081128Z 34007KT 04/04 A3021 RMK A01 T00350035  RH  100%=      5-min Rain = 0
KLA1 081129Z 34006KT 04/04 A3021 RMK A01 T00360035  RH  099%=      5-min Rain = 0
KLA1 081130Z 35007KT 04/03 A3021 RMK A01 T00350034  RH  099%=      5-min Rain = 0
KLA1 081131Z 33006KT 04/03 A3021 RMK A01 T00350034  RH  099%=      5-min Rain = 0
KLA1 081132Z 34006KT 04/03 A3021 RMK A01 T00350033  RH  099%=      5-min Rain = 0
KLA1 081133Z 33007KT 04/03 A3021 RMK A01 T00350033  RH  099%=      5-min Rain = 0
KLA1 081134Z 35006KT 04/03 A3021 RMK A01 T00350033  RH  099%=      5-min Rain = 0
KLA1 081135Z 35006KT 04/03 A3021 RMK A01 T00350033  RH  099%=      5-min Rain = 0
KLA1 081136Z 34006KT 04/03 A3021 RMK A01 T00350033  RH  099%=      5-min Rain = 0
KLA1 081137Z 35005KT 04/03 A3021 RMK A01 T00350033  RH  099%=      5-min Rain = 0
KLA1 081138Z 35007KT 04/03 A3021 RMK A01 T00350033  RH  099%=      5-min Rain = 0
KLA1 081139Z 35007KT 04/03 A3021 RMK A01 T00350033  RH  098%=      5-min Rain = 0
KLA1 081140Z 34008KT 04/03 A3022 RMK A01 T00350033  RH  098%=      5-min Rain = 0
KLA1 081141Z 34005KT 04/03 A3022 RMK A01 T00350032  RH  098%=      5-min Rain = 0
KLA1 081142Z 34005KT 04/03 A3022 RMK A01 T00350032  RH  098%=      5-min Rain = 0
KLA1 081143Z 33005KT 04/03 A3022 RMK A01 T00350032  RH  098%=      5-min Rain = 0
KLA1 081144Z 35006KT 04/03 A3022 RMK A01 T00350032  RH  098%=      5-min Rain = 0
KLA1 081145Z 35007KT 03/03 A3022 RMK A01 T00340031  RH  098%=      5-min Rain = 0
KLA1 081146Z 35006KT 04/03 A3022 RMK A01 T00350031  RH  098%=      5-min Rain = 0
KLA1 081147Z 34008KT 04/03 A3022 RMK A01 T00350031  RH  098%=      5-min Rain = 0
KLA1 081148Z 34007KT 04/03 A3022 RMK A01 T00350031  RH  097%=      5-min Rain = 0
KLA1 081149Z 35007KT 04/03 A3022 RMK A01 T00350031  RH  097%=      5-min Rain = 0
KLA1 081150Z 35008KT 04/03 A3022 RMK A01 T00350030  RH  097%=      5-min Rain = 0
KLA1 081151Z 35006KT 04/03 A3022 RMK A01 T00350030  RH  097%=      5-min Rain = 0
KLA1 081152Z 35006KT 04/03 A3022 RMK A01 T00350030  RH  097%=      5-min Rain = 0
KLA1 081153Z 34004KT 04/03 A3022 RMK A01 T00350030  RH  097%=      5-min Rain = 0.01
KLA1 081154Z 34004KT 04/03 A3022 RMK A01 T00350031  RH  097%=      5-min Rain = 0
KLA1 081155Z 34004KT 04/03 A3022 RMK A01 T00350031  RH  097%=      5-min Rain = 0
KLA1 081156Z 34007KT 04/03 A3022 RMK A01 T00350032  RH  098%=      5-min Rain = 0
KLA1 081157Z 34006KT 04/03 A3022 RMK A01 T00350032  RH  098%=      5-min Rain = 0
KLA1 081158Z 32005KT 04/03 A3022 RMK A01 T00350032  RH  098%=      5-min Rain = 0
KLA1 081159Z 34004KT 04/03 A3022 RMK A01 T00350032  RH  098%=      5-min Rain = 0
KLA1 081200Z 35006KT 04/03 A3022 RMK A01 T00350032  RH  098%=      5-min Rain = 0
KLA1 081201Z 34006KT 04/03 A3022 RMK A01 T00350031  RH  098%=      5-min Rain = 0
KLA1 081202Z 33006KT 04/03 A3022 RMK A01 T00350031  RH  098%=      5-min Rain = 0
KLA1 081203Z 34005KT 04/03 A3022 RMK A01 T00350031  RH  098%=      5-min Rain = 0
KLA1 081204Z 31006KT 03/03 A3022 RMK A01 T00340031  RH  098%=      5-min Rain = 0
KLA1 081205Z 32005KT 03/03 A3022 RMK A01 T00340031  RH  098%=      5-min Rain = 0
KLA1 081206Z 34005KT 03/03 A3022 RMK A01 T00340031  RH  098%=      5-min Rain = 0
KLA1 081207Z 32005KT 03/03 A3022 RMK A01 T00340031  RH  098%=      5-min Rain = 0
KLA1 081208Z 35006KT 03/03 A3022 RMK A01 T00340031  RH  098%=      5-min Rain = 0
KLA1 081209Z 34005KT 03/03 A3022 RMK A01 T00340030  RH  097%=      5-min Rain = 0
KLA1 081210Z 34005KT 03/03 A3022 RMK A01 T00330030  RH  097%=      5-min Rain = 0
KLA1 081211Z 34006KT 03/03 A3022 RMK A01 T00340030  RH  097%=      5-min Rain = 0
KLA1 081212Z 35005KT 03/03 A3022 RMK A01 T00330029  RH  097%=      5-min Rain = 0
KLA1 081213Z 34007KT 03/03 A3022 RMK A01 T00330029  RH  097%=      5-min Rain = 0
KLA1 081214Z 35007KT 03/03 A3022 RMK A01 T00330029  RH  097%=      5-min Rain = 0
KLA1 081215Z 34007KT 03/03 A3022 RMK A01 T00330028  RH  097%=      5-min Rain = 0
KLA1 081216Z 34008KT 03/03 A3022 RMK A01 T00320028  RH  097%=      5-min Rain = 0
KLA1 081217Z 34007KT 03/03 A3022 RMK A01 T00330028  RH  097%=      5-min Rain = 0
KLA1 081218Z 34006KT 03/03 A3022 RMK A01 T00320028  RH  097%=      5-min Rain = 0
KLA1 081219Z 35006KT 03/03 A3022 RMK A01 T00320028  RH  097%=      5-min Rain = 0
KLA1 081220Z 34004KT 03/03 A3022 RMK A01 T00320028  RH  097%=      5-min Rain = 0
KLA1 081221Z 35004KT 03/03 A3022 RMK A01 T00330028  RH  097%=      5-min Rain = 0
KLA1 081222Z 34005KT 03/03 A3022 RMK A01 T00320029  RH  097%=      5-min Rain = 0
KLA1 081223Z 34004KT 03/03 A3023 RMK A01 T00330029  RH  098%=      5-min Rain = 0
KLA1 081224Z 34006KT 03/03 A3023 RMK A01 T00330029  RH  098%=      5-min Rain = 0
KLA1 081225Z 32006KT 03/03 A3023 RMK A01 T00330030  RH  098%=      5-min Rain = 0
KLA1 081226Z 33006KT 03/03 A3023 RMK A01 T00320029  RH  098%=      5-min Rain = 0
KLA1 081227Z 32005KT 03/03 A3023 RMK A01 T00320029  RH  098%=      5-min Rain = 0
KLA1 081228Z 32007KT 03/03 A3023 RMK A01 T00320029  RH  098%=      5-min Rain = 0
KLA1 081229Z 34006KT 03/03 A3023 RMK A01 T00320030  RH  098%=      5-min Rain = 0
KLA1 081230Z 35006KT 03/03 A3023 RMK A01 T00320029  RH  098%=      5-min Rain = 0
KLA1 081231Z 35007KT 03/03 A3023 RMK A01 T00320029  RH  098%=      5-min Rain = 0
KLA1 081232Z 33007KT 03/03 A3023 RMK A01 T00320029  RH  098%=      5-min Rain = 0
KLA1 081233Z 35006KT 03/03 A3023 RMK A01 T00310029  RH  098%=      5-min Rain = 0
KLA1 081234Z 35006KT 03/03 A3023 RMK A01 T00310029  RH  098%=      5-min Rain = 0
KLA1 081235Z 35005KT 03/03 A3023 RMK A01 T00310029  RH  098%=      5-min Rain = 0
KLA1 081236Z 34006KT 03/03 A3023 RMK A01 T00320030  RH  099%=      5-min Rain = 0
KLA1 081237Z 34006KT 03/03 A3023 RMK A01 T00320030  RH  099%=      5-min Rain = 0
KLA1 081238Z 34004KT 03/03 A3023 RMK A01 T00320030  RH  099%=      5-min Rain = 0
KLA1 081239Z 34004KT 03/03 A3023 RMK A01 T00320030  RH  099%=      5-min Rain = 0
KLA1 081240Z 34004KT 03/03 A3023 RMK A01 T00320030  RH  099%=      5-min Rain = 0
KLA1 081241Z 34004KT 03/03 A3023 RMK A01 T00310030  RH  099%=      5-min Rain = 0
KLA1 081242Z 33005KT 03/03 A3023 RMK A01 T00320031  RH  099%=      5-min Rain = 0
KLA1 081243Z 33005KT 03/03 A3024 RMK A01 T00310031  RH  099%=      5-min Rain = 0
KLA1 081244Z 34004KT 03/03 A3024 RMK A01 T00320031  RH  100%=      5-min Rain = 0
KLA1 081245Z 33003KT 03/03 A3024 RMK A01 T00310031  RH  100%=      5-min Rain = 0
KLA1 081246Z 34003KT 03/03 A3024 RMK A01 T00320031  RH  100%=      5-min Rain = 0
KLA1 081247Z 34003KT 03/03 A3024 RMK A01 T00320032  RH  100%=      5-min Rain = 0
KLA1 081248Z 32003KT 03/03 A3024 RMK A01 T00320032  RH  100%=      5-min Rain = 0
KLA1 081249Z 32003KT 03/03 A3024 RMK A01 T00320032  RH  100%=      5-min Rain = 0
KLA1 081250Z 31004KT 03/03 A3024 RMK A01 T00320032  RH  100%=      5-min Rain = 0
KLA1 081251Z 32004KT 03/03 A3024 RMK A01 T00320032  RH  100%=      5-min Rain = 0
KLA1 081252Z 33003KT 03/03 A3024 RMK A01 T00320032  RH  100%=      5-min Rain = 0
KLA1 081253Z 31004KT 03/03 A3024 RMK A01 T00320032  RH  100%=      5-min Rain = 0
KLA1 081254Z 32003KT 03/03 A3024 RMK A01 T00320032  RH  100%=      5-min Rain = 0
KLA1 081255Z 32004KT 03/03 A3024 RMK A01 T00320032  RH  100%=      5-min Rain = 0
KLA1 081256Z 32004KT 03/03 A3025 RMK A01 T00320032  RH  100%=      5-min Rain = 0
KLA1 081257Z 32005KT 03/03 A3025 RMK A01 T00330032  RH  100%=      5-min Rain = 0
KLA1 081258Z 32005KT 03/03 A3025 RMK A01 T00330032  RH  100%=      5-min Rain = 0
KLA1 081259Z 31007KT 03/03 A3025 RMK A01 T00320032  RH  100%=      5-min Rain = 0
KLA1 081300Z 32006KT 03/03 A3025 RMK A01 T00320032  RH  100%=      5-min Rain = 0
KLA1 081301Z 33004KT 03/03 A3025 RMK A01 T00320031  RH  100%=      5-min Rain = 0
KLA1 081302Z 35007KT 03/03 A3025 RMK A01 T00320031  RH  099%=      5-min Rain = 0
KLA1 081303Z 34006KT 03/03 A3025 RMK A01 T00320030  RH  098%=      5-min Rain = 0
KLA1 081304Z 34005KT 03/03 A3025 RMK A01 T00310028  RH  098%=      5-min Rain = 0
KLA1 081305Z 34006KT 03/03 A3025 RMK A01 T00310028  RH  098%=      5-min Rain = 0
KLA1 081306Z 35007KT 03/03 A3025 RMK A01 T00310027  RH  097%=      5-min Rain = 0
KLA1 081307Z 35008KT 03/03 A3025 RMK A01 T00310027  RH  097%=      5-min Rain = 0
KLA1 081308Z 34006KT 03/03 A3025 RMK A01 T00320026  RH  096%=      5-min Rain = 0
KLA1 081309Z 34007KT 03/03 A3025 RMK A01 T00320026  RH  096%=      5-min Rain = 0
KLA1 081310Z 34007KT 03/03 A3025 RMK A01 T00310025  RH  096%=      5-min Rain = 0
KLA1 081311Z 35006KT 03/03 A3025 RMK A01 T00310025  RH  096%=      5-min Rain = 0
KLA1 081312Z 35006KT 03/03 A3025 RMK A01 T00310025  RH  096%=      5-min Rain = 0
KLA1 081313Z 35006KT 03/03 A3025 RMK A01 T00310025  RH  096%=      5-min Rain = 0
KLA1 081314Z 35007KT 03/03 A3025 RMK A01 T00310026  RH  096%=      5-min Rain = 0
KLA1 081315Z 35008KT 03/03 A3025 RMK A01 T00310026  RH  096%=      5-min Rain = 0
KLA1 081316Z 34008KT 03/03 A3025 RMK A01 T00310025  RH  096%=      5-min Rain = 0
KLA1 081317Z 35006KT 03/03 A3025 RMK A01 T00310025  RH  096%=      5-min Rain = 0
KLA1 081318Z 35005KT 03/03 A3025 RMK A01 T00310026  RH  096%=      5-min Rain = 0
KLA1 081319Z 34005KT 03/03 A3025 RMK A01 T00310026  RH  097%=      5-min Rain = 0
KLA1 081320Z 35005KT 03/03 A3025 RMK A01 T00310026  RH  097%=      5-min Rain = 0
KLA1 081321Z 34005KT 03/03 A3025 RMK A01 T00310026  RH  097%=      5-min Rain = 0
KLA1 081322Z 34007KT 03/03 A3025 RMK A01 T00310027  RH  097%=      5-min Rain = 0
KLA1 081323Z 34005KT 03/03 A3025 RMK A01 T00310027  RH  097%=      5-min Rain = 0
KLA1 081324Z 33004KT 03/03 A3025 RMK A01 T00310027  RH  097%=      5-min Rain = 0
KLA1 081325Z 34006KT 03/03 A3025 RMK A01 T00310027  RH  097%=      5-min Rain = 0
KLA1 081326Z 34007KT 03/03 A3025 RMK A01 T00310027  RH  097%=      5-min Rain = 0
KLA1 081327Z 35007KT 03/03 A3025 RMK A01 T00310027  RH  097%=      5-min Rain = 0
KLA1 081328Z 35008KT 03/03 A3025 RMK A01 T00310027  RH  097%=      5-min Rain = 0
KLA1 081329Z 34007KT 03/03 A3025 RMK A01 T00310027  RH  097%=      5-min Rain = 0
KLA1 081330Z 34006KT 03/03 A3026 RMK A01 T00310027  RH  097%=      5-min Rain = 0
KLA1 081331Z 35006KT 03/03 A3025 RMK A01 T00310027  RH  097%=      5-min Rain = 0
KLA1 081332Z 36007KT 03/03 A3025 RMK A01 T00310027  RH  097%=      5-min Rain = 0
KLA1 081333Z 35008KT 03/03 A3025 RMK A01 T00310027  RH  097%=      5-min Rain = 0
KLA1 081334Z 34006KT 03/03 A3026 RMK A01 T00310027  RH  097%=      5-min Rain = 0
KLA1 081335Z 35006KT 03/03 A3026 RMK A01 T00310028  RH  098%=      5-min Rain = 0
KLA1 081336Z 35007KT 03/03 A3026 RMK A01 T00310028  RH  098%=      5-min Rain = 0
KLA1 081337Z 35007KT 03/03 A3026 RMK A01 T00310028  RH  098%=      5-min Rain = 0
KLA1 081338Z 34008KT 03/03 A3026 RMK A01 T00310028  RH  098%=      5-min Rain = 0
KLA1 081339Z 34006KT 03/03 A3026 RMK A01 T00310028  RH  098%=      5-min Rain = 0
KLA1 081340Z 35007KT 03/03 A3026 RMK A01 T00310028  RH  098%=      5-min Rain = 0
KLA1 081341Z 33004KT 03/03 A3026 RMK A01 T00310028  RH  098%=      5-min Rain = 0
KLA1 081342Z 33006KT 03/03 A3026 RMK A01 T00320029  RH  098%=      5-min Rain = 0
KLA1 081343Z 34006KT 03/03 A3026 RMK A01 T00320029  RH  098%=      5-min Rain = 0
KLA1 081344Z 34007KT 03/03 A3026 RMK A01 T00320029  RH  098%=      5-min Rain = 0
KLA1 081345Z 34007KT 03/03 A3026 RMK A01 T00320029  RH  098%=      5-min Rain = 0
KLA1 081346Z 34006KT 03/03 A3026 RMK A01 T00320028  RH  098%=      5-min Rain = 0
KLA1 081347Z 33006KT 03/03 A3026 RMK A01 T00320029  RH  098%=      5-min Rain = 0
KLA1 081348Z 34005KT 03/03 A3026 RMK A01 T00320029  RH  098%=      5-min Rain = 0
KLA1 081349Z 34007KT 03/03 A3026 RMK A01 T00320029  RH  098%=      5-min Rain = 0
KLA1 081350Z 34006KT 03/03 A3026 RMK A01 T00320029  RH  098%=      5-min Rain = 0
KLA1 081351Z 34007KT 03/03 A3026 RMK A01 T00320028  RH  097%=      5-min Rain = 0
KLA1 081352Z 34007KT 03/03 A3026 RMK A01 T00320027  RH  097%=      5-min Rain = 0
KLA1 081353Z 34005KT 03/03 A3026 RMK A01 T00320027  RH  097%=      5-min Rain = 0
KLA1 081354Z 34005KT 03/03 A3026 RMK A01 T00320027  RH  097%=      5-min Rain = 0
KLA1 081355Z 34008KT 03/03 A3026 RMK A01 T00320027  RH  096%=      5-min Rain = 0
KLA1 081356Z 34008KT 03/03 A3026 RMK A01 T00320026  RH  096%=      5-min Rain = 0
KLA1 081357Z 35007KT 03/03 A3026 RMK A01 T00320026  RH  096%=      5-min Rain = 0
KLA1 081358Z 35007KT 03/03 A3026 RMK A01 T00320026  RH  096%=      5-min Rain = 0
KLA1 081359Z 34006KT 03/03 A3026 RMK A01 T00320025  RH  096%=      5-min Rain = 0
KLA1 081400Z 34006KT 03/03 A3027 RMK A01 T00320026  RH  096%=      5-min Rain = 0
KLA1 081401Z 35008KT 03/03 A3027 RMK A01 T00320026  RH  096%=      5-min Rain = 0
KLA1 081402Z 35007KT 03/03 A3027 RMK A01 T00320026  RH  096%=      5-min Rain = 0
KLA1 081403Z 35007KT 03/03 A3027 RMK A01 T00320026  RH  096%=      5-min Rain = 0
KLA1 081404Z 35007KT 03/03 A3027 RMK A01 T00320026  RH  096%=      5-min Rain = 0
KLA1 081405Z 35008KT 03/03 A3027 RMK A01 T00320026  RH  096%=      5-min Rain = 0
KLA1 081406Z 35008KT 03/03 A3027 RMK A01 T00320026  RH  096%=      5-min Rain = 0
KLA1 081407Z 35008KT 03/03 A3027 RMK A01 T00320026  RH  096%=      5-min Rain = 0
KLA1 081408Z 34008KT 03/03 A3027 RMK A01 T00320026  RH  096%=      5-min Rain = 0
KLA1 081409Z 35007KT 03/03 A3027 RMK A01 T00320026  RH  096%=      5-min Rain = 0
KLA1 081410Z 35008KT 03/03 A3027 RMK A01 T00320026  RH  096%=      5-min Rain = 0
KLA1 081411Z 34007KT 03/03 A3027 RMK A01 T00320027  RH  096%=      5-min Rain = 0
KLA1 081412Z 35006KT 03/03 A3027 RMK A01 T00320027  RH  096%=      5-min Rain = 0
KLA1 081413Z 35006KT 03/03 A3027 RMK A01 T00320027  RH  096%=      5-min Rain = 0
KLA1 081414Z 35006KT 03/03 A3027 RMK A01 T00320027  RH  097%=      5-min Rain = 0
KLA1 081415Z 34006KT 03/03 A3028 RMK A01 T00320028  RH  097%=      5-min Rain = 0
KLA1 081416Z 34006KT 03/03 A3028 RMK A01 T00320028  RH  097%=      5-min Rain = 0
KLA1 081417Z 35005KT 03/03 A3028 RMK A01 T00330029  RH  097%=      5-min Rain = 0
KLA1 081418Z 34005KT 03/03 A3028 RMK A01 T00330029  RH  098%=      5-min Rain = 0
KLA1 081419Z 34004KT 03/03 A3028 RMK A01 T00320029  RH  098%=      5-min Rain = 0
KLA1 081420Z 34003KT 03/03 A3028 RMK A01 T00330030  RH  098%=      5-min Rain = 0
KLA1 081421Z 35004KT 03/03 A3028 RMK A01 T00330030  RH  098%=      5-min Rain = 0
KLA1 081422Z 35006KT 03/03 A3028 RMK A01 T00330031  RH  099%=      5-min Rain = 0
KLA1 081423Z 35005KT 03/03 A3028 RMK A01 T00330031  RH  099%=      5-min Rain = 0
KLA1 081424Z 35005KT 03/03 A3028 RMK A01 T00330031  RH  099%=      5-min Rain = 0
KLA1 081425Z 35006KT 03/03 A3028 RMK A01 T00330031  RH  099%=      5-min Rain = 0
KLA1 081426Z 34005KT 03/03 A3028 RMK A01 T00320030  RH  098%=      5-min Rain = 0
KLA1 081427Z 34005KT 03/03 A3028 RMK A01 T00330030  RH  098%=      5-min Rain = 0
KLA1 081428Z 35005KT 03/03 A3028 RMK A01 T00320030  RH  098%=      5-min Rain = 0
KLA1 081429Z 35008KT 03/03 A3028 RMK A01 T00320029  RH  098%=      5-min Rain = 0
KLA1 081430Z 34006KT 03/03 A3028 RMK A01 T00320028  RH  097%=      5-min Rain = 0
KLA1 081431Z 34008KT 03/03 A3028 RMK A01 T00320027  RH  097%=      5-min Rain = 0
KLA1 081432Z 34006KT 03/03 A3028 RMK A01 T00320027  RH  097%=      5-min Rain = 0
KLA1 081433Z 34008KT 03/03 A3029 RMK A01 T00320027  RH  097%=      5-min Rain = 0
KLA1 081434Z 34007KT 03/03 A3029 RMK A01 T00320027  RH  097%=      5-min Rain = 0
KLA1 081435Z 34008KT 03/03 A3029 RMK A01 T00320027  RH  096%=      5-min Rain = 0
KLA1 081436Z 34006KT 03/03 A3029 RMK A01 T00320027  RH  096%=      5-min Rain = 0
KLA1 081437Z 35006KT 03/03 A3029 RMK A01 T00320027  RH  096%=      5-min Rain = 0
KLA1 081438Z 35006KT 03/03 A3029 RMK A01 T00320027  RH  097%=      5-min Rain = 0
KLA1 081439Z 34007KT 03/03 A3029 RMK A01 T00320027  RH  097%=      5-min Rain = 0
KLA1 081440Z 34005KT 03/03 A3029 RMK A01 T00320027  RH  097%=      5-min Rain = 0
KLA1 081441Z 34004KT 03/03 A3029 RMK A01 T00320028  RH  097%=      5-min Rain = 0
KLA1 081442Z 34006KT 03/03 A3029 RMK A01 T00320028  RH  097%=      5-min Rain = 0
KLA1 081443Z 36006KT 03/03 A3029 RMK A01 T00320028  RH  097%=      5-min Rain = 0
KLA1 081444Z 33006KT 03/03 A3029 RMK A01 T00320028  RH  097%=      5-min Rain = 0
KLA1 081445Z 34006KT 03/03 A3029 RMK A01 T00320028  RH  097%=      5-min Rain = 0
KLA1 081446Z 34006KT 03/03 A3029 RMK A01 T00320028  RH  097%=      5-min Rain = 0
KLA1 081447Z 34006KT 03/03 A3029 RMK A01 T00320029  RH  098%=      5-min Rain = 0
KLA1 081448Z 35005KT 03/03 A3029 RMK A01 T00330029  RH  098%=      5-min Rain = 0.01
KLA1 081449Z 34007KT 03/03 A3029 RMK A01 T00320029  RH  098%=      5-min Rain = 0
KLA1 081450Z 34005KT 03/03 A3029 RMK A01 T00320029  RH  098%=      5-min Rain = 0
KLA1 081451Z 34005KT 03/03 A3029 RMK A01 T00330029  RH  098%=      5-min Rain = 0
KLA1 081452Z 34006KT 03/03 A3029 RMK A01 T00320029  RH  098%=      5-min Rain = 0
KLA1 081453Z 33004KT 03/03 A3029 RMK A01 T00330029  RH  098%=      5-min Rain = 0
KLA1 081454Z 33006KT 03/03 A3029 RMK A01 T00330030  RH  098%=      5-min Rain = 0
KLA1 081455Z 33007KT 03/03 A3029 RMK A01 T00330030  RH  098%=      5-min Rain = 0
KLA1 081456Z 32006KT 03/03 A3029 RMK A01 T00330030  RH  098%=      5-min Rain = 0
KLA1 081457Z 32006KT 03/03 A3029 RMK A01 T00330030  RH  097%=      5-min Rain = 0
KLA1 081458Z 33006KT 03/03 A3029 RMK A01 T00330029  RH  097%=      5-min Rain = 0
KLA1 081459Z 34005KT 03/03 A3029 RMK A01 T00340030  RH  097%=      5-min Rain = 0
KLA1 081500Z 33004KT 03/03 A3029 RMK A01 T00340031  RH  098%=      5-min Rain = 0
KLA1 081501Z 32005KT 04/03 A3029 RMK A01 T00350032  RH  098%=      5-min Rain = 0
KLA1 081502Z 32004KT 04/03 A3029 RMK A01 T00350032  RH  098%=      5-min Rain = 0
KLA1 081503Z 31004KT 04/03 A3029 RMK A01 T00350032  RH  098%=      5-min Rain = 0
KLA1 081504Z 31005KT 04/03 A3029 RMK A01 T00350033  RH  098%=      5-min Rain = 0
KLA1 081505Z 31005KT 04/03 A3029 RMK A01 T00350032  RH  098%=      5-min Rain = 0.01
KLA1 081506Z 32006KT 04/03 A3029 RMK A01 T00350032  RH  098%=      5-min Rain = 0
KLA1 081507Z 33005KT 04/03 A3029 RMK A01 T00350032  RH  098%=      5-min Rain = 0
KLA1 081508Z 34004KT 04/03 A3029 RMK A01 T00350032  RH  098%=      5-min Rain = 0
KLA1 081509Z 32005KT 04/03 A3029 RMK A01 T00350032  RH  098%=      5-min Rain = 0
KLA1 081510Z 32004KT 04/03 A3029 RMK A01 T00350032  RH  097%=      5-min Rain = 0
KLA1 081511Z 32006KT 04/03 A3029 RMK A01 T00360032  RH  097%=      5-min Rain = 0
KLA1 081512Z 32007KT 04/03 A303 RMK A01 T00360032  RH  097%=      5-min Rain = 0
KLA1 081513Z 33006KT 04/03 A303 RMK A01 T00360031  RH  097%=      5-min Rain = 0
KLA1 081514Z 33004KT 04/03 A303 RMK A01 T00360031  RH  097%=      5-min Rain = 0
KLA1 081515Z 33005KT 04/03 A303 RMK A01 T00360031  RH  096%=      5-min Rain = 0
KLA1 081516Z 33006KT 04/03 A303 RMK A01 T00360031  RH  096%=      5-min Rain = 0
KLA1 081517Z 33005KT 04/03 A303 RMK A01 T00370031  RH  096%=      5-min Rain = 0
KLA1 081518Z 33005KT 04/03 A303 RMK A01 T00370031  RH  096%=      5-min Rain = 0
KLA1 081519Z 33004KT 04/03 A303 RMK A01 T00370032  RH  096%=      5-min Rain = 0
KLA1 081520Z 33005KT 04/03 A303 RMK A01 T00380033  RH  097%=      5-min Rain = 0
KLA1 081521Z 34006KT 04/03 A303 RMK A01 T00380033  RH  097%=      5-min Rain = 0
KLA1 081522Z 32005KT 04/03 A303 RMK A01 T00380032  RH  096%=      5-min Rain = 0
KLA1 081523Z 32006KT 04/03 A303 RMK A01 T00380033  RH  096%=      5-min Rain = 0
KLA1 081524Z 32005KT 04/03 A303 RMK A01 T00380033  RH  096%=      5-min Rain = 0
KLA1 081525Z 33005KT 04/03 A303 RMK A01 T00380033  RH  097%=      5-min Rain = 0
KLA1 081526Z 32004KT 04/03 A303 RMK A01 T00380034  RH  097%=      5-min Rain = 0
KLA1 081527Z 32005KT 04/03 A303 RMK A01 T00380034  RH  097%=      5-min Rain = 0
KLA1 081528Z 33005KT 04/03 A303 RMK A01 T00380034  RH  097%=      5-min Rain = 0
KLA1 081529Z 33005KT 04/03 A303 RMK A01 T00390034  RH  097%=      5-min Rain = 0
KLA1 081530Z 33005KT 04/03 A3031 RMK A01 T00380033  RH  096%=      5-min Rain = 0
KLA1 081531Z 33005KT 04/03 A3031 RMK A01 T00380033  RH  097%=      5-min Rain = 0
KLA1 081532Z 33006KT 04/03 A3031 RMK A01 T00380033  RH  097%=      5-min Rain = 0
KLA1 081533Z 33005KT 04/03 A3031 RMK A01 T00380033  RH  097%=      5-min Rain = 0
KLA1 081534Z 33005KT 04/03 A3031 RMK A01 T00380033  RH  097%=      5-min Rain = 0
KLA1 081535Z 33005KT 04/03 A3031 RMK A01 T00390034  RH  097%=      5-min Rain = 0
KLA1 081536Z 34004KT 04/03 A3031 RMK A01 T00390034  RH  097%=      5-min Rain = 0
KLA1 081537Z 33005KT 04/03 A3031 RMK A01 T00390034  RH  097%=      5-min Rain = 0
KLA1 081538Z 32006KT 04/04 A3031 RMK A01 T00390035  RH  097%=      5-min Rain = 0
KLA1 081539Z 32006KT 04/04 A3031 RMK A01 T00390035  RH  097%=      5-min Rain = 0
KLA1 081540Z 32007KT 04/03 A3031 RMK A01 T00390034  RH  096%=      5-min Rain = 0
KLA1 081541Z 34006KT 04/03 A3031 RMK A01 T00390033  RH  096%=      5-min Rain = 0
KLA1 081542Z 34006KT 04/03 A3031 RMK A01 T00390033  RH  096%=      5-min Rain = 0
KLA1 081543Z 34005KT 04/03 A3031 RMK A01 T00400033  RH  096%=      5-min Rain = 0
KLA1 081544Z 35008KT 04/03 A3031 RMK A01 T00390033  RH  096%=      5-min Rain = 0
KLA1 081545Z 34007KT 04/03 A3031 RMK A01 T00400032  RH  095%=      5-min Rain = 0
KLA1 081546Z 34007KT 04/03 A3031 RMK A01 T00390032  RH  095%=      5-min Rain = 0
KLA1 081547Z 34006KT 04/03 A3031 RMK A01 T00400032  RH  095%=      5-min Rain = 0
KLA1 081548Z 34005KT 04/03 A3031 RMK A01 T00400033  RH  095%=      5-min Rain = 0
KLA1 081549Z 34006KT 04/03 A3031 RMK A01 T00400033  RH  095%=      5-min Rain = 0
KLA1 081550Z 33006KT 04/03 A3031 RMK A01 T00400031  RH  094%=      5-min Rain = 0
KLA1 081551Z 34006KT 04/03 A3031 RMK A01 T00400031  RH  094%=      5-min Rain = 0
KLA1 081552Z 34006KT 04/03 A3031 RMK A01 T00400031  RH  094%=      5-min Rain = 0
KLA1 081553Z 33006KT 04/03 A3031 RMK A01 T00410032  RH  094%=      5-min Rain = 0
KLA1 081554Z 33006KT 04/03 A3031 RMK A01 T00410032  RH  094%=      5-min Rain = 0
KLA1 081555Z 33006KT 04/03 A3031 RMK A01 T00410032  RH  094%=      5-min Rain = 0
KLA1 081556Z 35007KT 04/03 A3031 RMK A01 T00410031  RH  093%=      5-min Rain = 0
KLA1 081557Z 34007KT 04/03 A3031 RMK A01 T00410030  RH  093%=      5-min Rain = 0
KLA1 081558Z 34007KT 04/03 A3031 RMK A01 T00410029  RH  092%=      5-min Rain = 0
KLA1 081559Z 34006KT 04/03 A3031 RMK A01 T00410030  RH  093%=      5-min Rain = 0
KLA1 081600Z 34006KT 04/03 A3031 RMK A01 T00420031  RH  093%=      5-min Rain = 0
KLA1 081601Z 34005KT 04/03 A3031 RMK A01 T00420031  RH  093%=      5-min Rain = 0
KLA1 081602Z 33004KT 04/03 A3031 RMK A01 T00420032  RH  093%=      5-min Rain = 0
KLA1 081603Z 34005KT 04/03 A3031 RMK A01 T00420033  RH  094%=      5-min Rain = 0
KLA1 081604Z 34006KT 04/03 A3031 RMK A01 T00430034  RH  094%=      5-min Rain = 0
KLA1 081605Z 34007KT 04/03 A3031 RMK A01 T00430033  RH  093%=      5-min Rain = 0
KLA1 081606Z 35005KT 04/03 A3031 RMK A01 T00430032  RH  093%=      5-min Rain = 0
KLA1 081607Z 35005KT 04/03 A3031 RMK A01 T00430033  RH  093%=      5-min Rain = 0
KLA1 081608Z 35006KT 04/03 A3031 RMK A01 T00430033  RH  094%=      5-min Rain = 0
KLA1 081609Z 35006KT 04/03 A3031 RMK A01 T00420033  RH  093%=      5-min Rain = 0
KLA1 081610Z 34006KT 04/03 A3031 RMK A01 T00430034  RH  094%=      5-min Rain = 0
KLA1 081611Z 33005KT 04/03 A3031 RMK A01 T00430034  RH  094%=      5-min Rain = 0
KLA1 081612Z 33004KT 04/04 A3031 RMK A01 T00440035  RH  094%=      5-min Rain = 0
KLA1 081613Z 32007KT 04/04 A3031 RMK A01 T00440036  RH  095%=      5-min Rain = 0
KLA1 081614Z 33007KT 04/04 A3031 RMK A01 T00440036  RH  094%=      5-min Rain = 0
KLA1 081615Z 32005KT 04/04 A3031 RMK A01 T00440036  RH  095%=      5-min Rain = 0
KLA1 081616Z 32005KT 04/04 A3031 RMK A01 T00440037  RH  095%=      5-min Rain = 0
KLA1 081617Z 32006KT 04/04 A3031 RMK A01 T00440037  RH  095%=      5-min Rain = 0
KLA1 081618Z 33007KT 04/04 A3031 RMK A01 T00440036  RH  095%=      5-min Rain = 0
KLA1 081619Z 33005KT 04/04 A3031 RMK A01 T00440036  RH  094%=      5-min Rain = 0
KLA1 081620Z 31008KT 04/04 A3031 RMK A01 T00440035  RH  094%=      5-min Rain = 0
KLA1 081621Z 33007KT 04/03 A3032 RMK A01 T00440034  RH  094%=      5-min Rain = 0
KLA1 081622Z 32007KT 04/03 A3031 RMK A01 T00430034  RH  094%=      5-min Rain = 0
KLA1 081623Z 32006KT 04/03 A3031 RMK A01 T00430034  RH  094%=      5-min Rain = 0
KLA1 081624Z 34004KT 04/04 A3031 RMK A01 T00430035  RH  094%=      5-min Rain = 0
KLA1 081625Z 35006KT 04/04 A3032 RMK A01 T00430035  RH  094%=      5-min Rain = 0
KLA1 081626Z 34006KT 04/04 A3032 RMK A01 T00430035  RH  094%=      5-min Rain = 0
KLA1 081627Z 32006KT 04/04 A3032 RMK A01 T00430035  RH  094%=      5-min Rain = 0
KLA1 081628Z 33008KT 04/03 A3032 RMK A01 T00430034  RH  093%=      5-min Rain = 0
KLA1 081629Z 31009KT 04/03 A3032 RMK A01 T00430032  RH  093%=      5-min Rain = 0
KLA1 081630Z 32009KT 04/03 A3032 RMK A01 T00430031  RH  092%=      5-min Rain = 0
KLA1 081631Z 32007KT 04/03 A3032 RMK A01 T00430031  RH  092%=      5-min Rain = 0
KLA1 081632Z 31006KT 04/03 A3032 RMK A01 T00430032  RH  092%=      5-min Rain = 0
KLA1 081633Z 32005KT 04/03 A3032 RMK A01 T00430033  RH  093%=      5-min Rain = 0
KLA1 081634Z 32006KT 04/03 A3032 RMK A01 T00430034  RH  094%=      5-min Rain = 0
KLA1 081635Z 31006KT 04/04 A3032 RMK A01 T00440035  RH  094%=      5-min Rain = 0
KLA1 081636Z 32008KT 04/04 A3032 RMK A01 T00440035  RH  094%=      5-min Rain = 0
KLA1 081637Z 31008KT 04/03 A3032 RMK A01 T00440034  RH  093%=      5-min Rain = 0
KLA1 081638Z 32006KT 04/03 A3032 RMK A01 T00440034  RH  093%=      5-min Rain = 0
KLA1 081639Z 32008KT 04/03 A3032 RMK A01 T00440034  RH  093%=      5-min Rain = 0
KLA1 081640Z 32008KT 04/03 A3032 RMK A01 T00440033  RH  093%=      5-min Rain = 0
KLA1 081641Z 33005KT 04/03 A3032 RMK A01 T00440032  RH  092%=      5-min Rain = 0
KLA1 081642Z 32006KT 04/03 A3032 RMK A01 T00440033  RH  092%=      5-min Rain = 0
KLA1 081643Z 32007KT 04/03 A3032 RMK A01 T00440032  RH  092%=      5-min Rain = 0
KLA1 081644Z 33008KT 04/03 A3032 RMK A01 T00440032  RH  092%=      5-min Rain = 0
KLA1 081645Z 32007KT 04/03 A3032 RMK A01 T00440032  RH  092%=      5-min Rain = 0
KLA1 081646Z 32008KT 04/03 A3032 RMK A01 T00440032  RH  092%=      5-min Rain = 0
KLA1 081647Z 33005KT 04/03 A3032 RMK A01 T00440032  RH  092%=      5-min Rain = 0
KLA1 081648Z 32007G13KT 04/03 A3032 RMK A01 T00440032  RH  092%=      5-min Rain = 0
KLA1 081649Z 32009KT 04/03 A3032 RMK A01 T00440033  RH  092%=      5-min Rain = 0
KLA1 081650Z 32008KT 04/03 A3032 RMK A01 T00440031  RH  091%=      5-min Rain = 0
KLA1 081651Z 34006KT 04/03 A3032 RMK A01 T00440031  RH  091%=      5-min Rain = 0
KLA1 081652Z 34006KT 04/03 A3032 RMK A01 T00440032  RH  092%=      5-min Rain = 0
KLA1 081653Z 35008KT 04/03 A3032 RMK A01 T00440032  RH  092%=      5-min Rain = 0
KLA1 081654Z 35010KT 04/03 A3032 RMK A01 T00440032  RH  092%=      5-min Rain = 0
KLA1 081655Z 34008KT 04/03 A3032 RMK A01 T00440031  RH  092%=      5-min Rain = 0
KLA1 081656Z 34007KT 04/03 A3032 RMK A01 T00440032  RH  092%=      5-min Rain = 0
KLA1 081657Z 33005KT 04/03 A3032 RMK A01 T00440032  RH  092%=      5-min Rain = 0
KLA1 081658Z 34005KT 04/03 A3032 RMK A01 T00440033  RH  093%=      5-min Rain = 0
KLA1 081659Z 34005KT 04/03 A3032 RMK A01 T00440034  RH  093%=      5-min Rain = 0
KLA1 081700Z 33005KT 04/03 A3032 RMK A01 T00440034  RH  093%=      5-min Rain = 0
KLA1 081701Z 33005KT 05/03 A3032 RMK A01 T00450034  RH  093%=      5-min Rain = 0
KLA1 081702Z 33005KT 05/03 A3032 RMK A01 T00450034  RH  093%=      5-min Rain = 0
KLA1 081703Z 33004KT 05/04 A3032 RMK A01 T00450036  RH  093%=      5-min Rain = 0
KLA1 081704Z 33004KT 05/04 A3032 RMK A01 T00460037  RH  094%=      5-min Rain = 0
KLA1 081705Z 34004KT 05/04 A3032 RMK A01 T00470037  RH  094%=      5-min Rain = 0
KLA1 081706Z 35006KT 05/04 A3032 RMK A01 T00470037  RH  093%=      5-min Rain = 0
KLA1 081707Z 35006KT 05/04 A3032 RMK A01 T00470036  RH  093%=      5-min Rain = 0
KLA1 081708Z 34007KT 05/04 A3032 RMK A01 T00470035  RH  092%=      5-min Rain = 0
KLA1 081709Z 35007KT 05/03 A3032 RMK A01 T00460033  RH  091%=      5-min Rain = 0
KLA1 081710Z 35008KT 05/03 A3032 RMK A01 T00460033  RH  091%=      5-min Rain = 0
KLA1 081711Z 34006KT 05/03 A3032 RMK A01 T00460033  RH  091%=      5-min Rain = 0
KLA1 081712Z 34005KT 05/03 A3032 RMK A01 T00460033  RH  091%=      5-min Rain = 0
KLA1 081713Z 34004KT 05/03 A3032 RMK A01 T00470034  RH  091%=      5-min Rain = 0
KLA1 081714Z 34004KT 05/04 A3032 RMK A01 T00480035  RH  092%=      5-min Rain = 0
KLA1 081715Z 32005KT 05/04 A3032 RMK A01 T00480035  RH  092%=      5-min Rain = 0
KLA1 081716Z 32008KT 05/04 A3032 RMK A01 T00480035  RH  091%=      5-min Rain = 0
KLA1 081717Z 32005KT 05/04 A3032 RMK A01 T00480035  RH  091%=      5-min Rain = 0
KLA1 081718Z 32007KT 05/03 A3032 RMK A01 T00490034  RH  091%=      5-min Rain = 0
KLA1 081719Z 32007KT 05/03 A3032 RMK A01 T00480033  RH  090%=      5-min Rain = 0
KLA1 081720Z 32007KT 05/03 A3032 RMK A01 T00480033  RH  090%=      5-min Rain = 0
KLA1 081721Z 32006KT 05/03 A3032 RMK A01 T00480032  RH  090%=      5-min Rain = 0
KLA1 081722Z 32006KT 05/03 A3032 RMK A01 T00480032  RH  090%=      5-min Rain = 0
KLA1 081723Z 32007KT 05/03 A3032 RMK A01 T00490034  RH  090%=      5-min Rain = 0
KLA1 081724Z 31009KT 05/03 A3032 RMK A01 T00490033  RH  090%=      5-min Rain = 0
KLA1 081725Z 32008KT 05/03 A3032 RMK A01 T00480032  RH  089%=      5-min Rain = 0
KLA1 081726Z 32007KT 05/03 A3032 RMK A01 T00480033  RH  089%=      5-min Rain = 0
KLA1 081727Z 32007KT 05/03 A3032 RMK A01 T00480033  RH  090%=      5-min Rain = 0
KLA1 081728Z 31008KT 05/03 A3032 RMK A01 T00480034  RH  090%=      5-min Rain = 0
KLA1 081729Z 32006KT 05/03 A3032 RMK A01 T00480034  RH  090%=      5-min Rain = 0
KLA1 081730Z 32007KT 05/03 A3032 RMK A01 T00490034  RH  090%=      5-min Rain = 0
KLA1 081731Z 32006KT 05/03 A3032 RMK A01 T00490034  RH  091%=      5-min Rain = 0
KLA1 081732Z 32007KT 05/04 A3032 RMK A01 T00490035  RH  091%=      5-min Rain = 0
KLA1 081733Z 32006KT 05/04 A3032 RMK A01 T00490036  RH  091%=      5-min Rain = 0
KLA1 081734Z 30006KT 05/04 A3032 RMK A01 T00490036  RH  092%=      5-min Rain = 0
KLA1 081735Z 31008KT 05/04 A3032 RMK A01 T00490037  RH  092%=      5-min Rain = 0
KLA1 081736Z 31008KT 05/04 A3032 RMK A01 T00490038  RH  093%=      5-min Rain = 0
KLA1 081737Z 31008KT 05/04 A3032 RMK A01 T00490038  RH  093%=      5-min Rain = 0
KLA1 081738Z 31007KT 05/04 A3032 RMK A01 T00480037  RH  092%=      5-min Rain = 0
KLA1 081739Z 31008KT 05/04 A3032 RMK A01 T00490038  RH  093%=      5-min Rain = 0
KLA1 081740Z 30008KT 05/04 A3032 RMK A01 T00480037  RH  092%=      5-min Rain = 0
KLA1 081741Z 31009KT 05/04 A3031 RMK A01 T00480036  RH  092%=      5-min Rain = 0
KLA1 081742Z 31009KT 05/04 A3031 RMK A01 T00480036  RH  092%=      5-min Rain = 0
KLA1 081743Z 30008KT 05/04 A3031 RMK A01 T00480036  RH  092%=      5-min Rain = 0
KLA1 081744Z 31010KT 05/04 A3031 RMK A01 T00480035  RH  091%=      5-min Rain = 0
KLA1 081745Z 31008KT 05/04 A3031 RMK A01 T00480035  RH  091%=      5-min Rain = 0
KLA1 081746Z 31008KT 05/03 A3031 RMK A01 T00480034  RH  091%=      5-min Rain = 0
KLA1 081747Z 30007KT 05/04 A3031 RMK A01 T00480035  RH  091%=      5-min Rain = 0
KLA1 081748Z 31008KT 05/04 A3031 RMK A01 T00480036  RH  092%=      5-min Rain = 0
KLA1 081749Z 31009KT 05/04 A3031 RMK A01 T00480035  RH  091%=      5-min Rain = 0
KLA1 081750Z 31008KT 05/04 A3031 RMK A01 T00490035  RH  091%=      5-min Rain = 0
KLA1 081751Z 32007KT 05/04 A3031 RMK A01 T00490036  RH  091%=      5-min Rain = 0
KLA1 081752Z 34005KT 05/04 A3031 RMK A01 T00490036  RH  091%=      5-min Rain = 0
KLA1 081753Z 34004KT 05/04 A3031 RMK A01 T00500037  RH  092%=      5-min Rain = 0
KLA1 081754Z 34004KT 05/04 A3031 RMK A01 T00510039  RH  092%=      5-min Rain = 0
KLA1 081755Z 32004KT 05/04 A3031 RMK A01 T00510038  RH  091%=      5-min Rain = 0
KLA1 081756Z 33006KT 05/04 A3031 RMK A01 T00510036  RH  090%=      5-min Rain = 0
KLA1 081757Z 32006KT 05/04 A3031 RMK A01 T00510036  RH  090%=      5-min Rain = 0
KLA1 081758Z 32007KT 05/04 A3031 RMK A01 T00510035  RH  089%=      5-min Rain = 0
KLA1 081759Z 33006KT 05/03 A3031 RMK A01 T00510034  RH  089%=      5-min Rain = 0
KLA1 081800Z 32005KT 05/04 A3031 RMK A01 T00510035  RH  090%=      5-min Rain = 0
KLA1 081801Z 31006KT 05/04 A3031 RMK A01 T00510036  RH  090%=      5-min Rain = 0
KLA1 081802Z 30007KT 05/04 A3031 RMK A01 T00510036  RH  090%=      5-min Rain = 0
KLA1 081803Z 31007KT 05/04 A3031 RMK A01 T00510038  RH  091%=      5-min Rain = 0
KLA1 081804Z 30008KT 05/04 A3031 RMK A01 T00510038  RH  091%=      5-min Rain = 0
KLA1 081805Z 31009KT 05/04 A3031 RMK A01 T00510037  RH  091%=      5-min Rain = 0
KLA1 081806Z 31007KT 05/04 A3031 RMK A01 T00500036  RH  090%=      5-min Rain = 0
KLA1 081807Z 31007KT 05/04 A3031 RMK A01 T00500037  RH  091%=      5-min Rain = 0
KLA1 081808Z 30008G13KT 05/04 A303 RMK A01 T00500037  RH  092%=      5-min Rain = 0
KLA1 081809Z 31010KT 05/04 A303 RMK A01 T00500037  RH  091%=      5-min Rain = 0
KLA1 081810Z 31010KT 05/04 A303 RMK A01 T00490035  RH  091%=      5-min Rain = 0
KLA1 081811Z 31008KT 05/04 A303 RMK A01 T00490036  RH  091%=      5-min Rain = 0
KLA1 081812Z 31007KT 05/04 A303 RMK A01 T00490036  RH  091%=      5-min Rain = 0
KLA1 081813Z 32007KT 05/04 A303 RMK A01 T00490037  RH  092%=      5-min Rain = 0
KLA1 081814Z 31008KT 05/04 A303 RMK A01 T00490037  RH  092%=      5-min Rain = 0
KLA1 081815Z 32008KT 05/04 A303 RMK A01 T00500037  RH  091%=      5-min Rain = 0
KLA1 081816Z 31009KT 05/04 A303 RMK A01 T00500037  RH  091%=      5-min Rain = 0
KLA1 081817Z 31007KT 05/04 A303 RMK A01 T00500037  RH  092%=      5-min Rain = 0
KLA1 081818Z 31009KT 05/04 A303 RMK A01 T00500038  RH  092%=      5-min Rain = 0
KLA1 081819Z 32008KT 05/04 A303 RMK A01 T00500038  RH  092%=      5-min Rain = 0
KLA1 081820Z 31009KT 05/04 A303 RMK A01 T00500037  RH  091%=      5-min Rain = 0
KLA1 081821Z 30009KT 05/04 A303 RMK A01 T00500037  RH  091%=      5-min Rain = 0
KLA1 081822Z 30009KT 05/04 A303 RMK A01 T00500037  RH  091%=      5-min Rain = 0
KLA1 081823Z 30009KT 05/04 A303 RMK A01 T00500036  RH  091%=      5-min Rain = 0
KLA1 081824Z 30010KT 05/04 A303 RMK A01 T00500036  RH  091%=      5-min Rain = 0
KLA1 081825Z 31009KT 05/04 A3029 RMK A01 T00490035  RH  091%=      5-min Rain = 0
KLA1 081826Z 31009KT 05/04 A3029 RMK A01 T00500036  RH  091%=      5-min Rain = 0
KLA1 081827Z 31007KT 05/04 A3029 RMK A01 T00490036  RH  091%=      5-min Rain = 0
KLA1 081828Z 31008KT 05/04 A3029 RMK A01 T00500038  RH  092%=      5-min Rain = 0
KLA1 081829Z 31007KT 05/04 A3029 RMK A01 T00510039  RH  092%=      5-min Rain = 0
KLA1 081830Z 32005KT 05/04 A3029 RMK A01 T00520041  RH  093%=      5-min Rain = 0
KLA1 081831Z 31009KT 05/04 A3029 RMK A01 T00530042  RH  093%=      5-min Rain = 0
KLA1 081832Z 33009KT 05/04 A3029 RMK A01 T00520039  RH  091%=      5-min Rain = 0
KLA1 081833Z 31009KT 05/04 A3029 RMK A01 T00510037  RH  090%=      5-min Rain = 0
KLA1 081834Z 31010KT 05/04 A3029 RMK A01 T00510037  RH  090%=      5-min Rain = 0
KLA1 081835Z 31009KT 05/04 A3029 RMK A01 T00510036  RH  090%=      5-min Rain = 0
KLA1 081836Z 31007KT 05/04 A3029 RMK A01 T00510036  RH  090%=      5-min Rain = 0
KLA1 081837Z 31008KT 05/04 A3029 RMK A01 T00510038  RH  091%=      5-min Rain = 0
KLA1 081838Z 32009KT 05/04 A3029 RMK A01 T00520038  RH  091%=      5-min Rain = 0
KLA1 081839Z 32008KT 05/04 A3029 RMK A01 T00520038  RH  091%=      5-min Rain = 0
KLA1 081840Z 33006KT 05/04 A3029 RMK A01 T00520038  RH  091%=      5-min Rain = 0
KLA1 081841Z 32008KT 05/04 A3029 RMK A01 T00520038  RH  091%=      5-min Rain = 0
KLA1 081842Z 31006KT 05/04 A3029 RMK A01 T00520038  RH  091%=      5-min Rain = 0
KLA1 081843Z 32008KT 05/04 A3029 RMK A01 T00520038  RH  091%=      5-min Rain = 0
KLA1 081844Z 31006KT 05/04 A3029 RMK A01 T00520037  RH  090%=      5-min Rain = 0
KLA1 081845Z 31006KT 05/04 A3029 RMK A01 T00520038  RH  091%=      5-min Rain = 0
KLA1 081846Z 32007KT 05/04 A3029 RMK A01 T00520038  RH  091%=      5-min Rain = 0
KLA1 081847Z 31008KT 05/04 A3028 RMK A01 T00530039  RH  091%=      5-min Rain = 0
KLA1 081848Z 30008KT 05/04 A3028 RMK A01 T00530039  RH  091%=      5-min Rain = 0
KLA1 081849Z 32007KT 05/04 A3028 RMK A01 T00530039  RH  091%=      5-min Rain = 0
KLA1 081850Z 32007KT 05/04 A3028 RMK A01 T00540040  RH  091%=      5-min Rain = 0
KLA1 081851Z 32007KT 05/04 A3028 RMK A01 T00540039  RH  090%=      5-min Rain = 0
KLA1 081852Z 32006KT 05/04 A3028 RMK A01 T00540038  RH  090%=      5-min Rain = 0
KLA1 081853Z 32009KT 05/04 A3028 RMK A01 T00540039  RH  090%=      5-min Rain = 0
KLA1 081854Z 32009KT 05/04 A3028 RMK A01 T00540038  RH  090%=      5-min Rain = 0
KLA1 081855Z 32009KT 05/04 A3028 RMK A01 T00540037  RH  089%=      5-min Rain = 0
KLA1 081856Z 31009KT 05/04 A3028 RMK A01 T00530037  RH  089%=      5-min Rain = 0
KLA1 081857Z 31008KT 05/04 A3028 RMK A01 T00540037  RH  089%=      5-min Rain = 0
KLA1 081858Z 31008KT 05/04 A3028 RMK A01 T00540037  RH  089%=      5-min Rain = 0
KLA1 081859Z 32008KT 05/04 A3028 RMK A01 T00540038  RH  089%=      5-min Rain = 0
KLA1 081900Z 31007KT 05/04 A3028 RMK A01 T00540038  RH  089%=      5-min Rain = 0
KLA1 081901Z 31009KT 06/04 A3028 RMK A01 T00550039  RH  090%=      5-min Rain = 0
KLA1 081902Z 32007KT 06/04 A3028 RMK A01 T00550039  RH  089%=      5-min Rain = 0
KLA1 081903Z 32006KT 06/04 A3028 RMK A01 T00550038  RH  089%=      5-min Rain = 0
KLA1 081904Z 31007KT 06/04 A3028 RMK A01 T00550039  RH  089%=      5-min Rain = 0
KLA1 081905Z 32007KT 06/04 A3028 RMK A01 T00550039  RH  089%=      5-min Rain = 0
KLA1 081906Z 31007KT 06/04 A3028 RMK A01 T00550039  RH  089%=      5-min Rain = 0
KLA1 081907Z 31010KT 06/04 A3028 RMK A01 T00550039  RH  089%=      5-min Rain = 0
KLA1 081908Z 30009KT 06/04 A3028 RMK A01 T00560039  RH  089%=      5-min Rain = 0
KLA1 081909Z 31010KT 06/04 A3028 RMK A01 T00550038  RH  089%=      5-min Rain = 0
KLA1 081910Z 32009KT 06/04 A3028 RMK A01 T00550037  RH  089%=      5-min Rain = 0
KLA1 081911Z 31010KT 06/04 A3028 RMK A01 T00550037  RH  089%=      5-min Rain = 0
KLA1 081912Z 31011KT 06/04 A3028 RMK A01 T00550038  RH  089%=      5-min Rain = 0
KLA1 081913Z 33009KT 06/04 A3028 RMK A01 T00550037  RH  088%=      5-min Rain = 0
KLA1 081914Z 32011KT 06/04 A3027 RMK A01 T00550036  RH  088%=      5-min Rain = 0
KLA1 081915Z 32009KT 06/04 A3027 RMK A01 T00550035  RH  087%=      5-min Rain = 0
KLA1 081916Z 31010KT 06/04 A3027 RMK A01 T00550035  RH  087%=      5-min Rain = 0
KLA1 081917Z 33009KT 06/04 A3027 RMK A01 T00550035  RH  087%=      5-min Rain = 0
KLA1 081918Z 33008KT 06/03 A3027 RMK A01 T00550034  RH  086%=      5-min Rain = 0
KLA1 081919Z 31009KT 06/04 A3027 RMK A01 T00550035  RH  086%=      5-min Rain = 0
KLA1 081920Z 32009KT 06/04 A3027 RMK A01 T00560036  RH  087%=      5-min Rain = 0
KLA1 081921Z 33008KT 06/04 A3027 RMK A01 T00570038  RH  088%=      5-min Rain = 0
KLA1 081922Z 32010KT 06/04 A3027 RMK A01 T00570037  RH  087%=      5-min Rain = 0
KLA1 081923Z 32011KT 06/04 A3027 RMK A01 T00570037  RH  087%=      5-min Rain = 0
KLA1 081924Z 32010KT 06/04 A3027 RMK A01 T00570037  RH  087%=      5-min Rain = 0
KLA1 081925Z 32011KT 06/04 A3027 RMK A01 T00570037  RH  087%=      5-min Rain = 0
KLA1 081926Z 32010KT 06/04 A3027 RMK A01 T00570035  RH  086%=      5-min Rain = 0
KLA1 081927Z 32010KT 06/04 A3027 RMK A01 T00570036  RH  086%=      5-min Rain = 0
KLA1 081928Z 32006KT 06/04 A3027 RMK A01 T00570037  RH  087%=      5-min Rain = 0
KLA1 081929Z 31011KT 06/04 A3027 RMK A01 T00570038  RH  088%=      5-min Rain = 0
KLA1 081930Z 31012KT 06/04 A3027 RMK A01 T00570038  RH  087%=      5-min Rain = 0
KLA1 081931Z 31010KT 06/04 A3027 RMK A01 T00570036  RH  087%=      5-min Rain = 0
KLA1 081932Z 32012KT 06/04 A3027 RMK A01 T00560036  RH  087%=      5-min Rain = 0
KLA1 081933Z 32010KT 06/04 A3027 RMK A01 T00560035  RH  087%=      5-min Rain = 0
KLA1 081934Z 32010KT 06/04 A3027 RMK A01 T00550035  RH  087%=      5-min Rain = 0
KLA1 081935Z 31010KT 06/04 A3027 RMK A01 T00560036  RH  087%=      5-min Rain = 0
KLA1 081936Z 32010KT 06/04 A3027 RMK A01 T00550036  RH  087%=      5-min Rain = 0
KLA1 081937Z 32009KT 06/04 A3027 RMK A01 T00550036  RH  087%=      5-min Rain = 0
KLA1 081938Z 33005KT 06/04 A3027 RMK A01 T00550036  RH  088%=      5-min Rain = 0
KLA1 081939Z 34006KT 06/04 A3027 RMK A01 T00550037  RH  088%=      5-min Rain = 0
KLA1 081940Z 33006KT 06/04 A3027 RMK A01 T00560039  RH  089%=      5-min Rain = 0
KLA1 081941Z 34005KT 06/04 A3027 RMK A01 T00570039  RH  088%=      5-min Rain = 0
KLA1 081942Z 34006KT 06/04 A3027 RMK A01 T00570039  RH  088%=      5-min Rain = 0
KLA1 081943Z 33006KT 06/04 A3027 RMK A01 T00580038  RH  087%=      5-min Rain = 0
KLA1 081944Z 32005KT 06/04 A3027 RMK A01 T00580038  RH  087%=      5-min Rain = 0
KLA1 081945Z 32007KT 06/04 A3027 RMK A01 T00580039  RH  087%=      5-min Rain = 0
KLA1 081946Z 32008KT 06/04 A3027 RMK A01 T00580037  RH  086%=      5-min Rain = 0
KLA1 081947Z 32008KT 06/04 A3027 RMK A01 T00580037  RH  086%=      5-min Rain = 0
KLA1 081948Z 32008KT 06/04 A3027 RMK A01 T00590037  RH  086%=      5-min Rain = 0
KLA1 081949Z 32007KT 06/04 A3027 RMK A01 T00590036  RH  086%=      5-min Rain = 0
KLA1 081950Z 32006KT 06/04 A3027 RMK A01 T00590038  RH  086%=      5-min Rain = 0
KLA1 081951Z 32009G16KT 06/04 A3027 RMK A01 T00590038  RH  086%=      5-min Rain = 0
KLA1 081952Z 31010KT 06/04 A3027 RMK A01 T00590037  RH  086%=      5-min Rain = 0
KLA1 081953Z 31009KT 06/04 A3027 RMK A01 T00590036  RH  085%=      5-min Rain = 0
KLA1 081954Z 31013KT 06/04 A3027 RMK A01 T00590036  RH  085%=      5-min Rain = 0
KLA1 081955Z 32010G15KT 06/04 A3027 RMK A01 T00580035  RH  085%=      5-min Rain = 0
KLA1 081956Z 31010KT 06/04 A3027 RMK A01 T00580037  RH  086%=      5-min Rain = 0
KLA1 081957Z 32008KT 06/04 A3027 RMK A01 T00580037  RH  086%=      5-min Rain = 0
KLA1 081958Z 32008G13KT 06/04 A3026 RMK A01 T00580037  RH  086%=      5-min Rain = 0
KLA1 081959Z 32008KT 06/04 A3027 RMK A01 T00580036  RH  086%=      5-min Rain = 0
KLA1 082000Z 31011KT 06/04 A3027 RMK A01 T00580037  RH  086%=      5-min Rain = 0
KLA1 082001Z 31008KT 06/04 A3027 RMK A01 T00580036  RH  086%=      5-min Rain = 0
KLA1 082002Z 32008KT 06/04 A3027 RMK A01 T00580037  RH  086%=      5-min Rain = 0
KLA1 082003Z 31009KT 06/04 A3027 RMK A01 T00580037  RH  086%=      5-min Rain = 0
KLA1 082004Z 32009KT 06/04 A3027 RMK A01 T00580037  RH  086%=      5-min Rain = 0
KLA1 082005Z 31010KT 06/04 A3027 RMK A01 T00580037  RH  086%=      5-min Rain = 0
KLA1 082006Z 32011KT 06/04 A3027 RMK A01 T00580037  RH  086%=      5-min Rain = 0
KLA1 082007Z 32010KT 06/04 A3027 RMK A01 T00580036  RH  086%=      5-min Rain = 0
KLA1 082008Z 32011G16KT 06/04 A3027 RMK A01 T00570036  RH  086%=      5-min Rain = 0
KLA1 082009Z 32011KT 06/04 A3026 RMK A01 T00570036  RH  086%=      5-min Rain = 0
KLA1 082010Z 32011G16KT 06/04 A3026 RMK A01 T00570036  RH  086%=      5-min Rain = 0
KLA1 082011Z 31013KT 06/04 A3026 RMK A01 T00570036  RH  087%=      5-min Rain = 0
KLA1 082012Z 32010KT 06/04 A3027 RMK A01 T00560035  RH  086%=      5-min Rain = 0
KLA1 082013Z 31008KT 06/04 A3026 RMK A01 T00570037  RH  087%=      5-min Rain = 0
KLA1 082014Z 31010KT 06/04 A3026 RMK A01 T00560037  RH  087%=      5-min Rain = 0
KLA1 082015Z 31011KT 06/04 A3026 RMK A01 T00570037  RH  087%=      5-min Rain = 0
KLA1 082016Z 32010KT 06/04 A3026 RMK A01 T00570036  RH  087%=      5-min Rain = 0
KLA1 082017Z 32011KT 06/04 A3026 RMK A01 T00570037  RH  087%=      5-min Rain = 0
KLA1 082018Z 31014KT 06/04 A3026 RMK A01 T00570037  RH  087%=      5-min Rain = 0
KLA1 082019Z 32011KT 06/04 A3026 RMK A01 T00570036  RH  086%=      5-min Rain = 0
KLA1 082020Z 31010KT 06/04 A3026 RMK A01 T00570036  RH  087%=      5-min Rain = 0
KLA1 082021Z 31012KT 06/04 A3026 RMK A01 T00570036  RH  087%=      5-min Rain = 0
KLA1 082022Z 32011KT 06/04 A3026 RMK A01 T00570036  RH  086%=      5-min Rain = 0
KLA1 082023Z 32009KT 06/04 A3026 RMK A01 T00570037  RH  087%=      5-min Rain = 0
KLA1 082024Z 32010G15KT 06/04 A3026 RMK A01 T00580037  RH  087%=      5-min Rain = 0
KLA1 082025Z 33008KT 06/04 A3026 RMK A01 T00580037  RH  087%=      5-min Rain = 0
KLA1 082026Z 33008KT 06/04 A3026 RMK A01 T00580039  RH  087%=      5-min Rain = 0
KLA1 082027Z 34007KT 06/04 A3026 RMK A01 T00580038  RH  087%=      5-min Rain = 0
KLA1 082028Z 33009KT 06/04 A3026 RMK A01 T00590038  RH  086%=      5-min Rain = 0
KLA1 082029Z 34007KT 06/04 A3026 RMK A01 T00590038  RH  086%=      5-min Rain = 0
KLA1 082030Z 34006KT 06/04 A3026 RMK A01 T00580039  RH  087%=      5-min Rain = 0
KLA1 082031Z 32010KT 06/04 A3026 RMK A01 T00590038  RH  087%=      5-min Rain = 0
KLA1 082032Z 31008KT 06/04 A3026 RMK A01 T00590037  RH  086%=      5-min Rain = 0
KLA1 082033Z 32007KT 06/04 A3026 RMK A01 T00590038  RH  087%=      5-min Rain = 0
KLA1 082034Z 36007KT 06/04 A3026 RMK A01 T00590038  RH  087%=      5-min Rain = 0
KLA1 082035Z 33007KT 06/04 A3026 RMK A01 T00590039  RH  087%=      5-min Rain = 0
KLA1 082036Z 32008KT 06/04 A3026 RMK A01 T00590039  RH  087%=      5-min Rain = 0
KLA1 082037Z 32006KT 06/04 A3026 RMK A01 T00590038  RH  087%=      5-min Rain = 0
KLA1 082038Z 33006KT 06/04 A3026 RMK A01 T00590039  RH  087%=      5-min Rain = 0
KLA1 082039Z 33008KT 06/04 A3026 RMK A01 T00590037  RH  086%=      5-min Rain = 0
KLA1 082040Z 33010KT 06/04 A3026 RMK A01 T00590036  RH  085%=      5-min Rain = 0
KLA1 082041Z 31009KT 06/04 A3026 RMK A01 T00580036  RH  085%=      5-min Rain = 0
KLA1 082042Z 32009KT 06/04 A3026 RMK A01 T00580037  RH  086%=      5-min Rain = 0
KLA1 082043Z 31009KT 06/04 A3026 RMK A01 T00580037  RH  086%=      5-min Rain = 0
KLA1 082044Z 31008KT 06/04 A3026 RMK A01 T00580037  RH  086%=      5-min Rain = 0
KLA1 082045Z 31008G13KT 06/04 A3026 RMK A01 T00580037  RH  086%=      5-min Rain = 0
KLA1 082046Z 31010KT 06/04 A3026 RMK A01 T00580036  RH  086%=      5-min Rain = 0
KLA1 082047Z 31010KT 06/04 A3026 RMK A01 T00580035  RH  085%=      5-min Rain = 0
KLA1 082048Z 33006G11KT 06/04 A3026 RMK A01 T00590036  RH  085%=      5-min Rain = 0
KLA1 082049Z 33009KT 06/04 A3026 RMK A01 T00590035  RH  085%=      5-min Rain = 0
KLA1 082050Z 32009KT 06/04 A3026 RMK A01 T00590035  RH  085%=      5-min Rain = 0
KLA1 082051Z 31009KT 06/04 A3026 RMK A01 T00590035  RH  085%=      5-min Rain = 0
KLA1 082052Z 30008KT 06/04 A3026 RMK A01 T00580035  RH  085%=      5-min Rain = 0
KLA1 082053Z 30008KT 06/04 A3026 RMK A01 T00590037  RH  086%=      5-min Rain = 0
KLA1 082054Z 30009KT 06/04 A3026 RMK A01 T00590036  RH  085%=      5-min Rain = 0
KLA1 082055Z 31010KT 06/04 A3026 RMK A01 T00590036  RH  085%=      5-min Rain = 0
KLA1 082056Z 31011KT 06/04 A3026 RMK A01 T00590036  RH  085%=      5-min Rain = 0
KLA1 082057Z 31008KT 06/03 A3026 RMK A01 T00580034  RH  085%=      5-min Rain = 0
KLA1 082058Z 31010KT 06/04 A3026 RMK A01 T00580035  RH  085%=      5-min Rain = 0
KLA1 082059Z 32009KT 06/04 A3026 RMK A01 T00580035  RH  085%=      5-min Rain = 0
KLA1 082100Z 32009G14KT 06/03 A3026 RMK A01 T00580034  RH  085%=      5-min Rain = 0
KLA1 082101Z 31009KT 06/03 A3026 RMK A01 T00580034  RH  085%=      5-min Rain = 0
KLA1 082102Z 32008KT 06/03 A3026 RMK A01 T00580034  RH  085%=      5-min Rain = 0
KLA1 082103Z 32006KT 06/03 A3026 RMK A01 T00580034  RH  085%=      5-min Rain = 0
KLA1 082104Z 32008G15KT 06/04 A3026 RMK A01 T00580035  RH  085%=      5-min Rain = 0
KLA1 082105Z 32012KT 06/03 A3026 RMK A01 T00580034  RH  085%=      5-min Rain = 0
KLA1 082106Z 32012KT 06/03 A3026 RMK A01 T00580034  RH  084%=      5-min Rain = 0
KLA1 082107Z 30009KT 06/03 A3026 RMK A01 T00580034  RH  085%=      5-min Rain = 0
KLA1 082108Z 30006KT 06/04 A3026 RMK A01 T00580035  RH  085%=      5-min Rain = 0
KLA1 082109Z 30009KT 06/04 A3026 RMK A01 T00580036  RH  086%=      5-min Rain = 0
KLA1 082110Z 30011KT 06/04 A3026 RMK A01 T00580036  RH  086%=      5-min Rain = 0
KLA1 082111Z 30009KT 06/04 A3026 RMK A01 T00580036  RH  086%=      5-min Rain = 0
KLA1 082112Z 30008KT 06/04 A3026 RMK A01 T00580036  RH  086%=      5-min Rain = 0
KLA1 082113Z 30008KT 06/04 A3026 RMK A01 T00580036  RH  086%=      5-min Rain = 0
KLA1 082114Z 31008KT 06/04 A3026 RMK A01 T00590037  RH  086%=      5-min Rain = 0
KLA1 082115Z 30011KT 06/04 A3026 RMK A01 T00590036  RH  085%=      5-min Rain = 0
KLA1 082116Z 30010KT 06/03 A3026 RMK A01 T00580034  RH  084%=      5-min Rain = 0
KLA1 082117Z 30009KT 06/03 A3026 RMK A01 T00580033  RH  084%=      5-min Rain = 0
KLA1 082118Z 31009KT 06/03 A3026 RMK A01 T00580034  RH  085%=      5-min Rain = 0
KLA1 082119Z 31009KT 06/03 A3026 RMK A01 T00580034  RH  084%=      5-min Rain = 0
KLA1 082120Z 30010KT 06/03 A3026 RMK A01 T00580033  RH  084%=      5-min Rain = 0
KLA1 082121Z 30011KT 06/03 A3026 RMK A01 T00580032  RH  083%=      5-min Rain = 0
KLA1 082122Z 31006KT 06/03 A3026 RMK A01 T00580033  RH  084%=      5-min Rain = 0
KLA1 082123Z 31008KT 06/03 A3026 RMK A01 T00590034  RH  084%=      5-min Rain = 0
KLA1 082124Z 31008KT 06/03 A3026 RMK A01 T00590033  RH  083%=      5-min Rain = 0
KLA1 082125Z 31007KT 06/03 A3026 RMK A01 T00590033  RH  083%=      5-min Rain = 0
KLA1 082126Z 31007KT 06/03 A3026 RMK A01 T00590034  RH  084%=      5-min Rain = 0
KLA1 082127Z 31007G12KT 06/03 A3026 RMK A01 T00590034  RH  084%=      5-min Rain = 0
KLA1 082128Z 30011KT 06/04 A3026 RMK A01 T00590035  RH  084%=      5-min Rain = 0
KLA1 082129Z 30014KT 06/04 A3026 RMK A01 T00590035  RH  084%=      5-min Rain = 0
KLA1 082130Z 30013KT 06/03 A3026 RMK A01 T00580033  RH  084%=      5-min Rain = 0
KLA1 082131Z 31011KT 06/03 A3026 RMK A01 T00570033  RH  084%=      5-min Rain = 0
KLA1 082132Z 29012KT 06/03 A3026 RMK A01 T00570033  RH  085%=      5-min Rain = 0
KLA1 082133Z 30012KT 06/03 A3026 RMK A01 T00570034  RH  085%=      5-min Rain = 0
KLA1 082134Z 30012KT 06/03 A3026 RMK A01 T00570034  RH  085%=      5-min Rain = 0
KLA1 082135Z 31011KT 06/03 A3026 RMK A01 T00570034  RH  085%=      5-min Rain = 0
KLA1 082136Z 31012KT 06/03 A3027 RMK A01 T00570034  RH  085%=      5-min Rain = 0
KLA1 082137Z 31009KT 06/03 A3027 RMK A01 T00570033  RH  084%=      5-min Rain = 0
KLA1 082138Z 31010KT 06/03 A3027 RMK A01 T00570033  RH  085%=      5-min Rain = 0
KLA1 082139Z 31010KT 06/03 A3027 RMK A01 T00570033  RH  085%=      5-min Rain = 0
KLA1 082140Z 31007KT 06/03 A3027 RMK A01 T00570034  RH  085%=      5-min Rain = 0
KLA1 082141Z 30009KT 06/03 A3027 RMK A01 T00570034  RH  085%=      5-min Rain = 0
KLA1 082142Z 31009KT 06/04 A3027 RMK A01 T00580035  RH  085%=      5-min Rain = 0
KLA1 082143Z 31007KT 06/04 A3027 RMK A01 T00580035  RH  085%=      5-min Rain = 0
KLA1 082144Z 32010KT 06/03 A3027 RMK A01 T00580034  RH  085%=      5-min Rain = 0
KLA1 082145Z 32009KT 06/03 A3027 RMK A01 T00580033  RH  084%=      5-min Rain = 0
KLA1 082146Z 31008KT 06/03 A3027 RMK A01 T00580033  RH  084%=      5-min Rain = 0
KLA1 082147Z 31009KT 06/03 A3027 RMK A01 T00580033  RH  084%=      5-min Rain = 0
KLA1 082148Z 32008KT 06/04 A3027 RMK A01 T00590035  RH  085%=      5-min Rain = 0
KLA1 082149Z 31013KT 06/03 A3027 RMK A01 T00590034  RH  084%=      5-min Rain = 0
KLA1 082150Z 31012KT 06/03 A3027 RMK A01 T00590033  RH  084%=      5-min Rain = 0
KLA1 082151Z 32010KT 06/03 A3027 RMK A01 T00590033  RH  083%=      5-min Rain = 0
KLA1 082152Z 32010KT 06/03 A3027 RMK A01 T00590033  RH  083%=      5-min Rain = 0
KLA1 082153Z 32008KT 06/03 A3027 RMK A01 T00590033  RH  084%=      5-min Rain = 0
KLA1 082154Z 31011KT 06/03 A3027 RMK A01 T00590034  RH  084%=      5-min Rain = 0
KLA1 082155Z 30009KT 06/03 A3027 RMK A01 T00590033  RH  084%=      5-min Rain = 0
KLA1 082156Z 30011KT 06/03 A3027 RMK A01 T00590034  RH  084%=      5-min Rain = 0
KLA1 082157Z 30011KT 06/03 A3027 RMK A01 T00590034  RH  084%=      5-min Rain = 0
KLA1 082158Z 30009KT 06/03 A3027 RMK A01 T00590034  RH  084%=      5-min Rain = 0
KLA1 082159Z 31008KT 06/04 A3027 RMK A01 T00580035  RH  085%=      5-min Rain = 0
KLA1 082200Z 31008KT 06/04 A3027 RMK A01 T00590036  RH  085%=      5-min Rain = 0
KLA1 082201Z 31009KT 06/04 A3027 RMK A01 T00590036  RH  085%=      5-min Rain = 0
KLA1 082202Z 32006KT 06/04 A3027 RMK A01 T00590035  RH  085%=      5-min Rain = 0
KLA1 082203Z 31007KT 06/04 A3027 RMK A01 T00590036  RH  085%=      5-min Rain = 0
KLA1 082204Z 32008KT 06/04 A3027 RMK A01 T00590036  RH  085%=      5-min Rain = 0
KLA1 082205Z 30008KT 06/04 A3027 RMK A01 T00590036  RH  085%=      5-min Rain = 0
KLA1 082206Z 30009KT 06/04 A3027 RMK A01 T00590036  RH  085%=      5-min Rain = 0
KLA1 082207Z 31010KT 06/04 A3027 RMK A01 T00590036  RH  085%=      5-min Rain = 0
KLA1 082208Z 31007KT 06/04 A3027 RMK A01 T00590035  RH  085%=      5-min Rain = 0
KLA1 082209Z 31008KT 06/04 A3027 RMK A01 T00590036  RH  085%=      5-min Rain = 0
KLA1 082210Z 31009KT 06/04 A3027 RMK A01 T00580035  RH  085%=      5-min Rain = 0
KLA1 082211Z 32008KT 06/04 A3027 RMK A01 T00590035  RH  085%=      5-min Rain = 0
KLA1 082212Z 31007KT 06/03 A3027 RMK A01 T00590034  RH  084%=      5-min Rain = 0
KLA1 082213Z 30007KT 06/04 A3027 RMK A01 T00590036  RH  085%=      5-min Rain = 0
KLA1 082214Z 30007KT 06/04 A3027 RMK A01 T00590036  RH  085%=      5-min Rain = 0
KLA1 082215Z 31007KT 06/04 A3027 RMK A01 T00590037  RH  085%=      5-min Rain = 0
KLA1 082216Z 31007KT 06/04 A3027 RMK A01 T00590037  RH  086%=      5-min Rain = 0
KLA1 082217Z 31006KT 06/04 A3027 RMK A01 T00590036  RH  085%=      5-min Rain = 0
KLA1 082218Z 32008KT 06/04 A3027 RMK A01 T00590037  RH  086%=      5-min Rain = 0
KLA1 082219Z 31008KT 06/04 A3027 RMK A01 T00590036  RH  085%=      5-min Rain = 0
KLA1 082220Z 31010KT 06/04 A3027 RMK A01 T00590035  RH  085%=      5-min Rain = 0
KLA1 082221Z 31008KT 06/04 A3027 RMK A01 T00590035  RH  084%=      5-min Rain = 0
KLA1 082222Z 32006KT 06/04 A3027 RMK A01 T00590035  RH  084%=      5-min Rain = 0
KLA1 082223Z 31009KT 06/04 A3027 RMK A01 T00590035  RH  084%=      5-min Rain = 0
KLA1 082224Z 31009KT 06/04 A3027 RMK A01 T00590035  RH  084%=      5-min Rain = 0
KLA1 082225Z 31009KT 06/04 A3027 RMK A01 T00590035  RH  084%=      5-min Rain = 0
KLA1 082226Z 31008KT 06/04 A3027 RMK A01 T00590035  RH  084%=      5-min Rain = 0
KLA1 082227Z 30009KT 06/04 A3027 RMK A01 T00590035  RH  085%=      5-min Rain = 0
KLA1 082228Z 31007KT 06/04 A3027 RMK A01 T00590035  RH  084%=      5-min Rain = 0
KLA1 082229Z 31009KT 06/04 A3027 RMK A01 T00590035  RH  085%=      5-min Rain = 0
KLA1 082230Z 31009KT 06/04 A3027 RMK A01 T00590036  RH  085%=      5-min Rain = 0
KLA1 082231Z 31009KT 06/04 A3027 RMK A01 T00590035  RH  085%=      5-min Rain = 0
KLA1 082232Z 31007KT 06/04 A3027 RMK A01 T00590035  RH  085%=      5-min Rain = 0
KLA1 082233Z 31009KT 06/04 A3027 RMK A01 T00590035  RH  085%=      5-min Rain = 0
KLA1 082234Z 31008KT 06/04 A3027 RMK A01 T00590036  RH  085%=      5-min Rain = 0
KLA1 082235Z 32008KT 06/04 A3027 RMK A01 T00590035  RH  085%=      5-min Rain = 0
KLA1 082236Z 33006KT 06/04 A3027 RMK A01 T00590036  RH  085%=      5-min Rain = 0
KLA1 082237Z 32008KT 06/04 A3027 RMK A01 T00590036  RH  085%=      5-min Rain = 0
KLA1 082238Z 33007KT 06/04 A3027 RMK A01 T00590035  RH  085%=      5-min Rain = 0
KLA1 082239Z 33006KT 06/04 A3027 RMK A01 T00590035  RH  085%=      5-min Rain = 0
KLA1 082240Z 32005KT 06/04 A3027 RMK A01 T00580036  RH  085%=      5-min Rain = 0
KLA1 082241Z 32007KT 06/04 A3027 RMK A01 T00590037  RH  086%=      5-min Rain = 0
KLA1 082242Z 32006KT 06/04 A3027 RMK A01 T00580036  RH  086%=      5-min Rain = 0
KLA1 082243Z 31010KT 06/04 A3027 RMK A01 T00590036  RH  086%=      5-min Rain = 0
KLA1 082244Z 32008KT 06/04 A3027 RMK A01 T00590036  RH  085%=      5-min Rain = 0
KLA1 082245Z 31007KT 06/04 A3027 RMK A01 T00590036  RH  085%=      5-min Rain = 0
KLA1 082246Z 31007KT 06/04 A3027 RMK A01 T00590036  RH  086%=      5-min Rain = 0
KLA1 082247Z 31006KT 06/04 A3027 RMK A01 T00590037  RH  086%=      5-min Rain = 0
KLA1 082248Z 32005KT 06/04 A3027 RMK A01 T00590037  RH  086%=      5-min Rain = 0
KLA1 082249Z 31008KT 06/04 A3027 RMK A01 T00590037  RH  086%=      5-min Rain = 0
KLA1 082250Z 31009KT 06/04 A3027 RMK A01 T00590036  RH  085%=      5-min Rain = 0
KLA1 082251Z 31009KT 06/04 A3027 RMK A01 T00580035  RH  085%=      5-min Rain = 0
KLA1 082252Z 31009KT 06/04 A3027 RMK A01 T00580035  RH  085%=      5-min Rain = 0
KLA1 082253Z 30008KT 06/03 A3027 RMK A01 T00580034  RH  085%=      5-min Rain = 0
KLA1 082254Z 31008KT 06/03 A3028 RMK A01 T00580034  RH  084%=      5-min Rain = 0
KLA1 082255Z 31008KT 06/04 A3028 RMK A01 T00580035  RH  085%=      5-min Rain = 0
KLA1 082256Z 32007KT 06/03 A3028 RMK A01 T00580034  RH  085%=      5-min Rain = 0
KLA1 082257Z 31006KT 06/03 A3028 RMK A01 T00580034  RH  085%=      5-min Rain = 0
KLA1 082258Z 29008KT 06/03 A3028 RMK A01 T00580034  RH  085%=      5-min Rain = 0
KLA1 082259Z 31008KT 06/04 A3028 RMK A01 T00580035  RH  085%=      5-min Rain = 0
KLA1 082300Z 30007KT 06/04 A3028 RMK A01 T00580035  RH  085%=      5-min Rain = 0
KLA1 082301Z 31006KT 06/04 A3028 RMK A01 T00580035  RH  085%=      5-min Rain = 0
KLA1 082302Z 31006KT 06/04 A3028 RMK A01 T00580035  RH  085%=      5-min Rain = 0
KLA1 082303Z 31006KT 06/04 A3028 RMK A01 T00580036  RH  086%=      5-min Rain = 0
KLA1 082304Z 30005KT 06/04 A3028 RMK A01 T00580036  RH  086%=      5-min Rain = 0
KLA1 082305Z 30006KT 06/04 A3028 RMK A01 T00580036  RH  086%=      5-min Rain = 0
KLA1 082306Z 30007KT 06/04 A3028 RMK A01 T00580037  RH  086%=      5-min Rain = 0
KLA1 082307Z 29005KT 06/04 A3028 RMK A01 T00580036  RH  086%=      5-min Rain = 0
KLA1 082308Z 30007KT 06/04 A3028 RMK A01 T00580036  RH  086%=      5-min Rain = 0
KLA1 082309Z 30007KT 06/04 A3028 RMK A01 T00580036  RH  086%=      5-min Rain = 0
KLA1 082310Z 30009KT 06/04 A3028 RMK A01 T00580035  RH  085%=      5-min Rain = 0
KLA1 082311Z 30009KT 06/04 A3028 RMK A01 T00570035  RH  085%=      5-min Rain = 0
KLA1 082312Z 30007KT 06/03 A3028 RMK A01 T00570034  RH  085%=      5-min Rain = 0
KLA1 082313Z 29005KT 06/04 A3028 RMK A01 T00570035  RH  086%=      5-min Rain = 0
KLA1 082314Z 29007KT 06/04 A3028 RMK A01 T00570035  RH  086%=      5-min Rain = 0
KLA1 082315Z 29007KT 06/04 A3028 RMK A01 T00570035  RH  086%=      5-min Rain = 0
KLA1 082316Z 29009KT 06/03 A3028 RMK A01 T00570034  RH  085%=      5-min Rain = 0
KLA1 082317Z 30008KT 06/03 A3028 RMK A01 T00570034  RH  085%=      5-min Rain = 0
KLA1 082318Z 30008KT 06/03 A3028 RMK A01 T00570034  RH  085%=      5-min Rain = 0
KLA1 082319Z 29007KT 06/03 A3028 RMK A01 T00570034  RH  085%=      5-min Rain = 0
KLA1 082320Z 30007KT 06/03 A3028 RMK A01 T00570034  RH  085%=      5-min Rain = 0
KLA1 082321Z 29007KT 06/03 A3028 RMK A01 T00570034  RH  085%=      5-min Rain = 0
KLA1 082322Z 29007KT 06/03 A3028 RMK A01 T00570034  RH  086%=      5-min Rain = 0
KLA1 082323Z 30007KT 06/03 A3028 RMK A01 T00570034  RH  086%=      5-min Rain = 0
KLA1 082324Z 29007KT 06/04 A3028 RMK A01 T00570035  RH  086%=      5-min Rain = 0
KLA1 082325Z 29007KT 06/04 A3028 RMK A01 T00570035  RH  086%=      5-min Rain = 0
KLA1 082326Z 29007KT 06/04 A3028 RMK A01 T00570035  RH  086%=      5-min Rain = 0
KLA1 082327Z 29007KT 06/04 A3028 RMK A01 T00570035  RH  086%=      5-min Rain = 0
KLA1 082328Z 30007KT 06/04 A3028 RMK A01 T00570035  RH  086%=      5-min Rain = 0
KLA1 082329Z 30006KT 06/04 A3028 RMK A01 T00570035  RH  086%=      5-min Rain = 0
KLA1 082330Z 29006KT 06/04 A3028 RMK A01 T00570035  RH  086%=      5-min Rain = 0
KLA1 082331Z 29006KT 06/04 A3028 RMK A01 T00570035  RH  086%=      5-min Rain = 0
KLA1 082332Z 29005KT 06/04 A3028 RMK A01 T00570035  RH  086%=      5-min Rain = 0
KLA1 082333Z 29006KT 06/04 A3028 RMK A01 T00570036  RH  086%=      5-min Rain = 0
KLA1 082334Z 29005KT 06/04 A3028 RMK A01 T00570035  RH  086%=      5-min Rain = 0
KLA1 082335Z 29007KT 06/04 A3028 RMK A01 T00570036  RH  086%=      5-min Rain = 0
KLA1 082336Z 30009KT 06/04 A3028 RMK A01 T00570035  RH  086%=      5-min Rain = 0
KLA1 082337Z 31009KT 06/03 A3028 RMK A01 T00570034  RH  085%=      5-min Rain = 0
KLA1 082338Z 30008KT 06/03 A3028 RMK A01 T00570034  RH  085%=      5-min Rain = 0
KLA1 082339Z 30006KT 06/03 A3028 RMK A01 T00570033  RH  085%=      5-min Rain = 0
KLA1 082340Z 30007KT 06/03 A3028 RMK A01 T00570033  RH  085%=      5-min Rain = 0
KLA1 082341Z 30007KT 06/03 A3028 RMK A01 T00570034  RH  085%=      5-min Rain = 0
KLA1 082342Z 29006KT 06/03 A3028 RMK A01 T00570034  RH  085%=      5-min Rain = 0
KLA1 082343Z 30008KT 06/03 A3028 RMK A01 T00570034  RH  085%=      5-min Rain = 0
KLA1 082344Z 30008KT 06/03 A3028 RMK A01 T00570033  RH  085%=      5-min Rain = 0
KLA1 082345Z 30006KT 06/03 A3028 RMK A01 T00570032  RH  084%=      5-min Rain = 0
KLA1 082346Z 31004KT 06/03 A3028 RMK A01 T00570033  RH  085%=      5-min Rain = 0
KLA1 082347Z 31005KT 06/03 A3028 RMK A01 T00570034  RH  085%=      5-min Rain = 0
KLA1 082348Z 30006KT 06/03 A3028 RMK A01 T00570034  RH  085%=      5-min Rain = 0
KLA1 082349Z 29006KT 06/03 A3028 RMK A01 T00570033  RH  085%=      5-min Rain = 0
KLA1 082350Z 30006KT 06/03 A3028 RMK A01 T00570034  RH  085%=      5-min Rain = 0
KLA1 082351Z 30007KT 06/03 A3028 RMK A01 T00570034  RH  085%=      5-min Rain = 0
KLA1 082352Z 29006KT 06/03 A3028 RMK A01 T00570033  RH  085%=      5-min Rain = 0
KLA1 082353Z 30007KT 06/03 A3028 RMK A01 T00570033  RH  085%=      5-min Rain = 0
KLA1 082354Z 29005KT 06/03 A3028 RMK A01 T00570033  RH  085%=      5-min Rain = 0
KLA1 082355Z 30005KT 06/03 A3029 RMK A01 T00570034  RH  085%=      5-min Rain = 0
KLA1 082356Z 29004KT 06/04 A3029 RMK A01 T00570035  RH  086%=      5-min Rain = 0
KLA1 082357Z 29008KT 06/03 A3029 RMK A01 T00570034  RH  086%=      5-min Rain = 0
KLA1 082358Z 30007KT 06/03 A3029 RMK A01 T00570034  RH  085%=      5-min Rain = 0
KLA1 082359Z 29006KT 06/03 A3029 RMK A01 T00570034  RH  085%=      5-min Rain = 0
KLA1 090000Z 29007KT 06/03 A3029 RMK A01 T00570034  RH  085%=      5-min Rain = 0
KLA1 090001Z 30008KT 06/03 A3029 RMK A01 T00570034  RH  085%=      5-min Rain = 0
KLA1 090002Z 30007KT 06/03 A3029 RMK A01 T00570033  RH  085%=      5-min Rain = 0
KLA1 090003Z 30006KT 06/03 A3029 RMK A01 T00570034  RH  085%=      5-min Rain = 0
KLA1 090004Z 30005KT 06/03 A3029 RMK A01 T00570034  RH  085%=      5-min Rain = 0
KLA1 090005Z 31005KT 06/03 A3029 RMK A01 T00570034  RH  086%=      5-min Rain = 0
KLA1 090006Z 31003KT 06/04 A3029 RMK A01 T00570035  RH  086%=      5-min Rain = 0
KLA1 090007Z 31003KT 06/04 A3029 RMK A01 T00570035  RH  086%=      5-min Rain = 0
KLA1 090008Z 31005KT 06/04 A3029 RMK A01 T00570035  RH  086%=      5-min Rain = 0
KLA1 090009Z 31004KT 06/04 A3028 RMK A01 T00570035  RH  086%=      5-min Rain = 0
KLA1 090010Z 31005KT 06/04 A3028 RMK A01 T00570035  RH  086%=      5-min Rain = 0
KLA1 090011Z 31005KT 06/03 A3028 RMK A01 T00570034  RH  085%=      5-min Rain = 0
KLA1 090012Z 31005KT 06/03 A3028 RMK A01 T00570034  RH  085%=      5-min Rain = 0
KLA1 090013Z 31003KT 06/03 A3028 RMK A01 T00570034  RH  085%=      5-min Rain = 0
KLA1 090014Z 30006KT 06/03 A3028 RMK A01 T00570034  RH  085%=      5-min Rain = 0
KLA1 090015Z 31005KT 06/03 A3028 RMK A01 T00570034  RH  085%=      5-min Rain = 0
KLA1 090016Z 32005KT 06/03 A3028 RMK A01 T00570034  RH  086%=      5-min Rain = 0
KLA1 090017Z 33004KT 06/03 A3028 RMK A01 T00570033  RH  085%=      5-min Rain = 0
KLA1 090018Z 33003KT 06/03 A3028 RMK A01 T00570033  RH  085%=      5-min Rain = 0
KLA1 090019Z 32005KT 06/03 A3028 RMK A01 T00570033  RH  085%=      5-min Rain = 0
KLA1 090020Z 31005KT 06/03 A3028 RMK A01 T00570033  RH  085%=      5-min Rain = 0
KLA1 090021Z 32005KT 06/03 A3028 RMK A01 T00570033  RH  085%=      5-min Rain = 0
KLA1 090022Z 33004KT 06/03 A3028 RMK A01 T00570033  RH  085%=      5-min Rain = 0
KLA1 090023Z 32006KT 06/03 A3028 RMK A01 T00570033  RH  084%=      5-min Rain = 0
KLA1 090024Z 32006KT 06/03 A3028 RMK A01 T00570032  RH  084%=      5-min Rain = 0
KLA1 090025Z 32006KT 06/03 A3028 RMK A01 T00570033  RH  084%=      5-min Rain = 0
KLA1 090026Z 31004KT 06/03 A3028 RMK A01 T00570033  RH  085%=      5-min Rain = 0
KLA1 090027Z 32004KT 06/03 A3028 RMK A01 T00570033  RH  085%=      5-min Rain = 0
KLA1 090028Z 31004KT 06/03 A3028 RMK A01 T00570033  RH  085%=      5-min Rain = 0
KLA1 090029Z 33003KT 06/03 A3028 RMK A01 T00570034  RH  085%=      5-min Rain = 0
KLA1 090030Z 32004KT 06/03 A3029 RMK A01 T00570034  RH  085%=      5-min Rain = 0
KLA1 090031Z 31003KT 06/03 A3029 RMK A01 T00570034  RH  085%=      5-min Rain = 0
KLA1 090032Z 30005KT 06/03 A3029 RMK A01 T00570034  RH  086%=      5-min Rain = 0
KLA1 090033Z 30004KT 06/03 A3029 RMK A01 T00570034  RH  086%=      5-min Rain = 0
KLA1 090034Z 29006KT 06/04 A3029 RMK A01 T00570035  RH  086%=      5-min Rain = 0
KLA1 090035Z 30006KT 06/03 A3029 RMK A01 T00570034  RH  086%=      5-min Rain = 0
KLA1 090036Z 30005KT 06/03 A3029 RMK A01 T00570034  RH  086%=      5-min Rain = 0
KLA1 090037Z 30006KT 06/04 A3029 RMK A01 T00570035  RH  086%=      5-min Rain = 0
KLA1 090038Z 30005KT 06/04 A303 RMK A01 T00570035  RH  086%=      5-min Rain = 0
KLA1 090039Z 29004KT 06/04 A303 RMK A01 T00570035  RH  086%=      5-min Rain = 0
KLA1 090040Z 30005KT 06/04 A303 RMK A01 T00570035  RH  086%=      5-min Rain = 0
KLA1 090041Z 30006KT 06/04 A303 RMK A01 T00570036  RH  086%=      5-min Rain = 0
KLA1 090042Z 30006KT 06/04 A303 RMK A01 T00570035  RH  086%=      5-min Rain = 0
KLA1 090043Z 31006KT 06/04 A303 RMK A01 T00570035  RH  086%=      5-min Rain = 0
KLA1 090044Z 30005KT 06/04 A303 RMK A01 T00570035  RH  086%=      5-min Rain = 0
KLA1 090045Z 31005KT 06/04 A303 RMK A01 T00570035  RH  086%=      5-min Rain = 0
KLA1 090046Z 31004KT 06/04 A303 RMK A01 T00570035  RH  086%=      5-min Rain = 0
KLA1 090047Z 31003KT 06/04 A303 RMK A01 T00570035  RH  086%=      5-min Rain = 0
KLA1 090048Z 31003KT 06/04 A303 RMK A01 T00570036  RH  086%=      5-min Rain = 0
KLA1 090049Z 30005KT 06/04 A303 RMK A01 T00570036  RH  086%=      5-min Rain = 0
KLA1 090050Z 30005KT 06/04 A303 RMK A01 T00570035  RH  086%=      5-min Rain = 0
KLA1 090051Z 30006KT 06/04 A303 RMK A01 T00570035  RH  086%=      5-min Rain = 0
KLA1 090052Z 31006KT 06/04 A303 RMK A01 T00570035  RH  086%=      5-min Rain = 0
KLA1 090053Z 30006KT 06/04 A303 RMK A01 T00570035  RH  086%=      5-min Rain = 0
KLA1 090054Z 31004KT 06/04 A303 RMK A01 T00570035  RH  086%=      5-min Rain = 0
KLA1 090055Z 31006KT 06/04 A303 RMK A01 T00570036  RH  086%=      5-min Rain = 0
KLA1 090056Z 31006KT 06/04 A303 RMK A01 T00570035  RH  086%=      5-min Rain = 0
KLA1 090057Z 31006KT 06/04 A303 RMK A01 T00570035  RH  086%=      5-min Rain = 0
KLA1 090058Z 31005KT 06/04 A303 RMK A01 T00570035  RH  086%=      5-min Rain = 0
KLA1 090059Z 31004KT 06/04 A303 RMK A01 T00570035  RH  086%=      5-min Rain = 0
KLA1 090100Z 30004KT 06/04 A303 RMK A01 T00570036  RH  086%=      5-min Rain = 0
KLA1 090101Z 31004KT 06/04 A303 RMK A01 T00570036  RH  086%=      5-min Rain = 0
KLA1 090102Z 31005KT 06/04 A303 RMK A01 T00570036  RH  086%=      5-min Rain = 0
KLA1 090103Z 32004KT 06/04 A303 RMK A01 T00570036  RH  087%=      5-min Rain = 0
KLA1 090104Z 31004KT 06/04 A303 RMK A01 T00570036  RH  087%=      5-min Rain = 0
KLA1 090105Z 31004KT 06/04 A303 RMK A01 T00570037  RH  087%=      5-min Rain = 0
KLA1 090106Z 32006KT 06/04 A303 RMK A01 T00570036  RH  087%=      5-min Rain = 0
KLA1 090107Z 32005KT 06/04 A303 RMK A01 T00570036  RH  086%=      5-min Rain = 0
KLA1 090108Z 32004KT 06/04 A303 RMK A01 T00570036  RH  086%=      5-min Rain = 0
KLA1 090109Z 31004KT 06/04 A303 RMK A01 T00570036  RH  086%=      5-min Rain = 0
KLA1 090110Z 32004KT 06/04 A303 RMK A01 T00570036  RH  086%=      5-min Rain = 0
KLA1 090111Z 31005KT 06/04 A303 RMK A01 T00570036  RH  087%=      5-min Rain = 0
KLA1 090112Z 30004KT 06/04 A303 RMK A01 T00570036  RH  087%=      5-min Rain = 0
KLA1 090113Z 30004KT 06/04 A303 RMK A01 T00570036  RH  087%=      5-min Rain = 0
KLA1 090114Z 30003KT 06/04 A303 RMK A01 T00570037  RH  087%=      5-min Rain = 0
KLA1 090115Z 31003KT 06/04 A303 RMK A01 T00570037  RH  087%=      5-min Rain = 0
KLA1 090116Z 32004KT 06/04 A303 RMK A01 T00570038  RH  088%=      5-min Rain = 0
KLA1 090117Z 31004KT 06/04 A303 RMK A01 T00560037  RH  087%=      5-min Rain = 0
KLA1 090118Z 32004KT 06/04 A303 RMK A01 T00560036  RH  087%=      5-min Rain = 0
KLA1 090119Z 31003KT 06/04 A303 RMK A01 T00560037  RH  087%=      5-min Rain = 0
KLA1 090120Z 31003KT 06/04 A303 RMK A01 T00560036  RH  087%=      5-min Rain = 0
KLA1 090121Z 31004KT 06/04 A303 RMK A01 T00560036  RH  087%=      5-min Rain = 0
KLA1 090122Z 32004KT 06/04 A303 RMK A01 T00560036  RH  087%=      5-min Rain = 0
KLA1 090123Z 33003KT 06/04 A303 RMK A01 T00560036  RH  087%=      5-min Rain = 0
KLA1 090124Z 32005KT 06/04 A303 RMK A01 T00560035  RH  086%=      5-min Rain = 0
KLA1 090125Z 35003KT 06/04 A303 RMK A01 T00560035  RH  086%=      5-min Rain = 0
KLA1 090126Z 33003KT 06/03 A303 RMK A01 T00560034  RH  086%=      5-min Rain = 0
KLA1 090127Z 31004KT 06/03 A303 RMK A01 T00560034  RH  085%=      5-min Rain = 0
KLA1 090128Z 31005KT 06/03 A303 RMK A01 T00560034  RH  086%=      5-min Rain = 0
KLA1 090129Z 32004KT 06/03 A303 RMK A01 T00560034  RH  086%=      5-min Rain = 0
KLA1 090130Z 32004KT 06/03 A303 RMK A01 T00560034  RH  086%=      5-min Rain = 0
KLA1 090131Z 31004KT 06/03 A303 RMK A01 T00560034  RH  086%=      5-min Rain = 0
KLA1 090132Z 32005KT 06/04 A303 RMK A01 T00560035  RH  086%=      5-min Rain = 0
KLA1 090133Z 32005KT 06/04 A303 RMK A01 T00560035  RH  086%=      5-min Rain = 0
KLA1 090134Z 32005KT 06/03 A303 RMK A01 T00560034  RH  086%=      5-min Rain = 0
KLA1 090135Z 31005KT 06/03 A303 RMK A01 T00560033  RH  085%=      5-min Rain = 0
KLA1 090136Z 31004KT 06/03 A303 RMK A01 T00560033  RH  085%=      5-min Rain = 0
KLA1 090137Z 31004KT 06/03 A303 RMK A01 T00560033  RH  085%=      5-min Rain = 0
KLA1 090138Z 30004KT 06/03 A303 RMK A01 T00560034  RH  086%=      5-min Rain = 0
KLA1 090139Z 31005KT 06/04 A303 RMK A01 T00560035  RH  086%=      5-min Rain = 0
KLA1 090140Z 31003KT 06/04 A303 RMK A01 T00560035  RH  086%=      5-min Rain = 0
KLA1 090141Z 30005KT 06/04 A303 RMK A01 T00560035  RH  086%=      5-min Rain = 0
KLA1 090142Z 31004KT 06/04 A303 RMK A01 T00570035  RH  086%=      5-min Rain = 0
KLA1 090143Z 31006KT 06/04 A303 RMK A01 T00560035  RH  086%=      5-min Rain = 0
KLA1 090144Z 31005KT 06/03 A303 RMK A01 T00560034  RH  086%=      5-min Rain = 0
KLA1 090145Z 31004KT 06/04 A303 RMK A01 T00560035  RH  086%=      5-min Rain = 0
KLA1 090146Z 31004KT 06/04 A303 RMK A01 T00560035  RH  086%=      5-min Rain = 0
KLA1 090147Z 31004KT 06/04 A303 RMK A01 T00560035  RH  086%=      5-min Rain = 0
KLA1 090148Z 31004KT 06/04 A303 RMK A01 T00560035  RH  086%=      5-min Rain = 0
KLA1 090149Z 31004KT 06/04 A303 RMK A01 T00560035  RH  086%=      5-min Rain = 0
KLA1 090150Z 31004KT 06/04 A303 RMK A01 T00560036  RH  087%=      5-min Rain = 0
KLA1 090151Z 31004KT 06/04 A303 RMK A01 T00560036  RH  087%=      5-min Rain = 0
KLA1 090152Z 31005KT 06/04 A303 RMK A01 T00560036  RH  087%=      5-min Rain = 0
KLA1 090153Z 31004KT 06/04 A303 RMK A01 T00560036  RH  087%=      5-min Rain = 0
KLA1 090154Z 32004KT 06/04 A303 RMK A01 T00560036  RH  087%=      5-min Rain = 0
KLA1 090155Z 32007KT 06/04 A3031 RMK A01 T00560035  RH  086%=      5-min Rain = 0
KLA1 090156Z 33006KT 06/03 A3031 RMK A01 T00560033  RH  085%=      5-min Rain = 0
KLA1 090157Z 32006KT 06/03 A303 RMK A01 T00560032  RH  084%=      5-min Rain = 0
KLA1 090158Z 31006KT 06/03 A3031 RMK A01 T00560030  RH  083%=      5-min Rain = 0
KLA1 090159Z 32006KT 06/03 A3031 RMK A01 T00570031  RH  083%=      5-min Rain = 0
KLA1 090200Z 31005KT 06/03 A3031 RMK A01 T00570031  RH  083%=      5-min Rain = 0
KLA1 090201Z 31005KT 06/03 A3031 RMK A01 T00570031  RH  084%=      5-min Rain = 0
KLA1 090202Z 31005KT 06/03 A3031 RMK A01 T00570032  RH  084%=      5-min Rain = 0
KLA1 090203Z 32004KT 06/03 A3031 RMK A01 T00570032  RH  084%=      5-min Rain = 0
KLA1 090204Z 33004KT 06/03 A3031 RMK A01 T00570033  RH  085%=      5-min Rain = 0
KLA1 090205Z 32005KT 06/03 A3031 RMK A01 T00570033  RH  085%=      5-min Rain = 0
KLA1 090206Z 32004KT 06/03 A3031 RMK A01 T00570033  RH  084%=      5-min Rain = 0
KLA1 090207Z 32005KT 06/03 A3031 RMK A01 T00570032  RH  084%=      5-min Rain = 0
KLA1 090208Z 32005KT 06/03 A3031 RMK A01 T00570032  RH  084%=      5-min Rain = 0
KLA1 090209Z 32005KT 06/03 A3031 RMK A01 T00570032  RH  084%=      5-min Rain = 0
KLA1 090210Z 31005KT 06/03 A3031 RMK A01 T00570033  RH  084%=      5-min Rain = 0
KLA1 090211Z 32005KT 06/03 A3031 RMK A01 T00570032  RH  084%=      5-min Rain = 0
KLA1 090212Z 32006KT 06/03 A3031 RMK A01 T00570032  RH  084%=      5-min Rain = 0
KLA1 090213Z 32007KT 06/03 A3031 RMK A01 T00570031  RH  084%=      5-min Rain = 0
KLA1 090214Z 32006KT 06/03 A3031 RMK A01 T00570031  RH  084%=      5-min Rain = 0
KLA1 090215Z 33004KT 06/03 A3031 RMK A01 T00570031  RH  084%=      5-min Rain = 0
KLA1 090216Z 32006KT 06/03 A3031 RMK A01 T00570031  RH  083%=      5-min Rain = 0
KLA1 090217Z 32005KT 06/03 A3031 RMK A01 T00570030  RH  083%=      5-min Rain = 0
KLA1 090218Z 32004KT 06/03 A3031 RMK A01 T00570030  RH  083%=      5-min Rain = 0
KLA1 090219Z 32005KT 06/03 A3031 RMK A01 T00570031  RH  083%=      5-min Rain = 0
KLA1 090220Z 32005KT 06/03 A3031 RMK A01 T00570030  RH  083%=      5-min Rain = 0
KLA1 090221Z 32004KT 06/03 A3031 RMK A01 T00570031  RH  083%=      5-min Rain = 0
KLA1 090222Z 33005KT 06/03 A3031 RMK A01 T00570031  RH  083%=      5-min Rain = 0
KLA1 090223Z 33006KT 06/03 A3031 RMK A01 T00570031  RH  083%=      5-min Rain = 0
KLA1 090224Z 32007KT 06/03 A3031 RMK A01 T00570030  RH  083%=      5-min Rain = 0
KLA1 090225Z 33006KT 06/03 A3031 RMK A01 T00570029  RH  082%=      5-min Rain = 0
KLA1 090226Z 33005KT 06/03 A3031 RMK A01 T00570029  RH  082%=      5-min Rain = 0
KLA1 090227Z 33006KT 06/03 A303 RMK A01 T00570029  RH  082%=      5-min Rain = 0
KLA1 090228Z 33005KT 06/03 A303 RMK A01 T00570029  RH  082%=      5-min Rain = 0
KLA1 090229Z 32005KT 06/03 A303 RMK A01 T00580029  RH  082%=      5-min Rain = 0
KLA1 090230Z 33004KT 06/03 A303 RMK A01 T00580029  RH  082%=      5-min Rain = 0
KLA1 090231Z 33004KT 06/03 A303 RMK A01 T00580029  RH  082%=      5-min Rain = 0
KLA1 090232Z 33004G9KT 06/03 A303 RMK A01 T00580029  RH  082%=      5-min Rain = 0
KLA1 090233Z 33007KT 06/03 A303 RMK A01 T00580029  RH  082%=      5-min Rain = 0
KLA1 090234Z 34005KT 06/03 A303 RMK A01 T00580029  RH  082%=      5-min Rain = 0
KLA1 090235Z 34004KT 06/03 A303 RMK A01 T00580029  RH  082%=      5-min Rain = 0
KLA1 090236Z 34003KT 06/03 A303 RMK A01 T00580030  RH  082%=      5-min Rain = 0
KLA1 090237Z 33005KT 06/03 A303 RMK A01 T00580030  RH  082%=      5-min Rain = 0
KLA1 090238Z 32005KT 06/03 A303 RMK A01 T00580029  RH  082%=      5-min Rain = 0
KLA1 090239Z 32006KT 06/03 A303 RMK A01 T00580028  RH  082%=      5-min Rain = 0
KLA1 090240Z 33006KT 06/03 A303 RMK A01 T00580029  RH  082%=      5-min Rain = 0
KLA1 090241Z 32007KT 06/03 A3031 RMK A01 T00580029  RH  082%=      5-min Rain = 0
KLA1 090242Z 32005KT 06/03 A303 RMK A01 T00580029  RH  082%=      5-min Rain = 0
KLA1 090243Z 33004KT 06/03 A3031 RMK A01 T00580029  RH  082%=      5-min Rain = 0
KLA1 090244Z 33005KT 06/03 A3031 RMK A01 T00580029  RH  082%=      5-min Rain = 0
KLA1 090245Z 33006KT 06/03 A3031 RMK A01 T00580028  RH  082%=      5-min Rain = 0
KLA1 090246Z 31006KT 06/03 A3031 RMK A01 T00580028  RH  081%=      5-min Rain = 0
KLA1 090247Z 33004KT 06/03 A3031 RMK A01 T00580028  RH  081%=      5-min Rain = 0
KLA1 090248Z 32004KT 06/03 A3031 RMK A01 T00580028  RH  082%=      5-min Rain = 0
KLA1 090249Z 31005KT 06/03 A3031 RMK A01 T00580029  RH  082%=      5-min Rain = 0
KLA1 090250Z 33004KT 06/03 A3031 RMK A01 T00580030  RH  082%=      5-min Rain = 0
KLA1 090251Z 32006KT 06/03 A3031 RMK A01 T00580030  RH  082%=      5-min Rain = 0
KLA1 090252Z 32006KT 06/03 A3031 RMK A01 T00580029  RH  082%=      5-min Rain = 0
KLA1 090253Z 33005KT 06/03 A3031 RMK A01 T00580029  RH  082%=      5-min Rain = 0
KLA1 090254Z 32004KT 06/03 A3031 RMK A01 T00580029  RH  082%=      5-min Rain = 0
KLA1 090255Z 33003KT 06/03 A3031 RMK A01 T00580029  RH  082%=      5-min Rain = 0
KLA1 090256Z 32004KT 06/03 A3031 RMK A01 T00570029  RH  082%=      5-min Rain = 0
KLA1 090257Z 32005KT 06/03 A3031 RMK A01 T00580029  RH  082%=      5-min Rain = 0
KLA1 090258Z 33004KT 06/03 A3031 RMK A01 T00580028  RH  081%=      5-min Rain = 0
KLA1 090259Z 32003KT 06/03 A3031 RMK A01 T00580029  RH  082%=      5-min Rain = 0
KLA1 090300Z 32004KT 06/03 A3031 RMK A01 T00580030  RH  082%=      5-min Rain = 0
KLA1 090301Z 33004KT 06/03 A3031 RMK A01 T00580030  RH  082%=      5-min Rain = 0
KLA1 090302Z 32004KT 06/03 A3031 RMK A01 T00580030  RH  082%=      5-min Rain = 0
KLA1 090303Z 32003KT 06/03 A3031 RMK A01 T00580030  RH  082%=      5-min Rain = 0
KLA1 090304Z 33002KT 06/03 A3031 RMK A01 T00580030  RH  082%=      5-min Rain = 0
KLA1 090305Z 31004KT 06/03 A3031 RMK A01 T00580030  RH  082%=      5-min Rain = 0
KLA1 090306Z 32003KT 06/03 A3031 RMK A01 T00580030  RH  082%=      5-min Rain = 0
KLA1 090307Z 31003KT 06/03 A3031 RMK A01 T00580030  RH  082%=      5-min Rain = 0
KLA1 090308Z 31006KT 06/03 A3031 RMK A01 T00580031  RH  083%=      5-min Rain = 0
KLA1 090309Z 32005KT 06/03 A3031 RMK A01 T00580029  RH  082%=      5-min Rain = 0
KLA1 090310Z 31005KT 06/03 A3031 RMK A01 T00580030  RH  082%=      5-min Rain = 0
KLA1 090311Z 32006KT 06/03 A3031 RMK A01 T00580030  RH  082%=      5-min Rain = 0
KLA1 090312Z 32006KT 06/03 A3031 RMK A01 T00580029  RH  082%=      5-min Rain = 0
KLA1 090313Z 32005KT 06/03 A3031 RMK A01 T00580029  RH  082%=      5-min Rain = 0
KLA1 090314Z 31005KT 06/03 A3031 RMK A01 T00580029  RH  082%=      5-min Rain = 0
KLA1 090315Z 31005KT 06/03 A3031 RMK A01 T00580029  RH  081%=      5-min Rain = 0
KLA1 090316Z 31006KT 06/03 A3031 RMK A01 T00580029  RH  081%=      5-min Rain = 0
KLA1 090317Z 32005KT 06/03 A3031 RMK A01 T00580028  RH  081%=      5-min Rain = 0
KLA1 090318Z 31006KT 06/03 A3031 RMK A01 T00580028  RH  081%=      5-min Rain = 0
KLA1 090319Z 31005KT 06/03 A3031 RMK A01 T00580028  RH  081%=      5-min Rain = 0
KLA1 090320Z 32003KT 06/03 A3031 RMK A01 T00580029  RH  081%=      5-min Rain = 0
KLA1 090321Z 32003KT 06/03 A3031 RMK A01 T00580029  RH  082%=      5-min Rain = 0
KLA1 090322Z 32004KT 06/03 A3032 RMK A01 T00580029  RH  082%=      5-min Rain = 0
KLA1 090323Z 30004KT 06/03 A3032 RMK A01 T00580029  RH  082%=      5-min Rain = 0
KLA1 090324Z 32004KT 06/03 A3032 RMK A01 T00580030  RH  082%=      5-min Rain = 0
KLA1 090325Z 32003KT 06/03 A3031 RMK A01 T00580029  RH  082%=      5-min Rain = 0
KLA1 090326Z 31004KT 06/03 A3032 RMK A01 T00580029  RH  082%=      5-min Rain = 0
KLA1 090327Z 32003KT 06/03 A3032 RMK A01 T00580030  RH  082%=      5-min Rain = 0
KLA1 090328Z 33002KT 06/03 A3032 RMK A01 T00580030  RH  082%=      5-min Rain = 0
KLA1 090329Z 33002KT 06/03 A3032 RMK A01 T00580030  RH  082%=      5-min Rain = 0
KLA1 090330Z 32004KT 06/03 A3032 RMK A01 T00580030  RH  082%=      5-min Rain = 0
KLA1 090331Z 32003KT 06/03 A3032 RMK A01 T00580030  RH  082%=      5-min Rain = 0
KLA1 090332Z 32005KT 06/03 A3032 RMK A01 T00580030  RH  082%=      5-min Rain = 0
KLA1 090333Z 33006G11KT 06/03 A3032 RMK A01 T00580029  RH  082%=      5-min Rain = 0
KLA1 090334Z 32006KT 06/03 A3032 RMK A01 T00580028  RH  081%=      5-min Rain = 0
KLA1 090335Z 33005KT 06/03 A3032 RMK A01 T00580028  RH  081%=      5-min Rain = 0
KLA1 090336Z 33004KT 06/03 A3032 RMK A01 T00580027  RH  081%=      5-min Rain = 0
KLA1 090337Z 31006KT 06/03 A3032 RMK A01 T00580028  RH  081%=      5-min Rain = 0
KLA1 090338Z 32005KT 06/03 A3032 RMK A01 T00590028  RH  081%=      5-min Rain = 0
KLA1 090339Z 32005KT 06/03 A3032 RMK A01 T00590028  RH  081%=      5-min Rain = 0
KLA1 090340Z 33004KT 06/03 A3032 RMK A01 T00590029  RH  081%=      5-min Rain = 0
KLA1 090341Z 32004KT 06/03 A3032 RMK A01 T00580029  RH  081%=      5-min Rain = 0
KLA1 090342Z 32004KT 06/03 A3032 RMK A01 T00580030  RH  082%=      5-min Rain = 0
KLA1 090343Z 32002KT 06/03 A3032 RMK A01 T00580030  RH  082%=      5-min Rain = 0
KLA1 090344Z 30004KT 06/03 A3032 RMK A01 T00580029  RH  082%=      5-min Rain = 0
KLA1 090345Z 30003KT 06/03 A3032 RMK A01 T00580029  RH  082%=      5-min Rain = 0
KLA1 090346Z 31002KT 06/03 A3032 RMK A01 T00580030  RH  082%=      5-min Rain = 0
KLA1 090347Z 30002KT 06/03 A3032 RMK A01 T00580030  RH  082%=      5-min Rain = 0
KLA1 090348Z 31002KT 06/03 A3032 RMK A01 T00580030  RH  082%=      5-min Rain = 0
KLA1 090349Z 31002KT 06/03 A3032 RMK A01 T00580030  RH  082%=      5-min Rain = 0
KLA1 090350Z 33001KT 06/03 A3032 RMK A01 T00580030  RH  082%=      5-min Rain = 0
KLA1 090351Z 31002KT 06/03 A3032 RMK A01 T00580031  RH  083%=      5-min Rain = 0
KLA1 090352Z 31002KT 06/03 A3032 RMK A01 T00580030  RH  083%=      5-min Rain = 0
KLA1 090353Z 31002KT 06/03 A3032 RMK A01 T00580030  RH  083%=      5-min Rain = 0
KLA1 090354Z 30002KT 06/03 A3032 RMK A01 T00580031  RH  083%=      5-min Rain = 0
KLA1 090355Z 30002KT 06/03 A3032 RMK A01 T00570031  RH  083%=      5-min Rain = 0
KLA1 090356Z 30002KT 06/03 A3032 RMK A01 T00580032  RH  083%=      5-min Rain = 0
KLA1 090357Z 31003KT 06/03 A3032 RMK A01 T00570030  RH  083%=      5-min Rain = 0
KLA1 090358Z 30002KT 06/03 A3032 RMK A01 T00570030  RH  083%=      5-min Rain = 0
KLA1 090359Z 31003KT 06/03 A3032 RMK A01 T00570031  RH  083%=      5-min Rain = 0
KLA1 090400Z 30003KT 06/03 A3032 RMK A01 T00570031  RH  083%=      5-min Rain = 0
KLA1 090401Z 31003KT 06/03 A3032 RMK A01 T00570031  RH  083%=      5-min Rain = 0
KLA1 090402Z 31003KT 06/03 A3032 RMK A01 T00570032  RH  084%=      5-min Rain = 0
KLA1 090403Z 29002KT 06/03 A3032 RMK A01 T00570032  RH  084%=      5-min Rain = 0
KLA1 090404Z 28001KT 06/03 A3032 RMK A01 T00570032  RH  084%=      5-min Rain = 0
KLA1 090405Z 28001KT 06/03 A3032 RMK A01 T00580033  RH  084%=      5-min Rain = 0
KLA1 090406Z 29001KT 06/03 A3032 RMK A01 T00570033  RH  085%=      5-min Rain = 0
KLA1 090407Z 28001KT 06/03 A3032 RMK A01 T00570033  RH  085%=      5-min Rain = 0
KLA1 090408Z 28001KT 06/03 A3032 RMK A01 T00570033  RH  085%=      5-min Rain = 0
KLA1 090409Z 27002KT 06/03 A3032 RMK A01 T00560033  RH  085%=      5-min Rain = 0
KLA1 090410Z 27002KT 06/03 A3032 RMK A01 T00560033  RH  085%=      5-min Rain = 0
KLA1 090411Z 29002KT 06/03 A3032 RMK A01 T00560033  RH  085%=      5-min Rain = 0
KLA1 090412Z 29002KT 06/03 A3032 RMK A01 T00560033  RH  085%=      5-min Rain = 0
KLA1 090413Z 29002KT 06/03 A3032 RMK A01 T00560033  RH  086%=      5-min Rain = 0
KLA1 090414Z 29002KT 06/03 A3032 RMK A01 T00550033  RH  086%=      5-min Rain = 0
KLA1 090415Z 30002KT 06/03 A3032 RMK A01 T00550034  RH  086%=      5-min Rain = 0
KLA1 090416Z 30002KT 06/03 A3032 RMK A01 T00550033  RH  086%=      5-min Rain = 0
KLA1 090417Z 30002KT 06/03 A3032 RMK A01 T00550033  RH  086%=      5-min Rain = 0
KLA1 090418Z 30002KT 06/03 A3032 RMK A01 T00550034  RH  086%=      5-min Rain = 0
KLA1 090419Z 30002KT 06/03 A3032 RMK A01 T00550034  RH  086%=      5-min Rain = 0
KLA1 090420Z 30002KT 06/03 A3032 RMK A01 T00550034  RH  086%=      5-min Rain = 0
KLA1 090421Z 31002KT 06/03 A3032 RMK A01 T00550034  RH  087%=      5-min Rain = 0
KLA1 090422Z 31001KT 05/03 A3032 RMK A01 T00540034  RH  087%=      5-min Rain = 0
KLA1 090423Z 31002KT 05/03 A3032 RMK A01 T00540034  RH  087%=      5-min Rain = 0
KLA1 090424Z 31002KT 05/03 A3032 RMK A01 T00540034  RH  087%=      5-min Rain = 0
KLA1 090425Z 31002KT 05/03 A3032 RMK A01 T00540034  RH  087%=      5-min Rain = 0
KLA1 090426Z 32002KT 05/03 A3032 RMK A01 T00540033  RH  086%=      5-min Rain = 0
KLA1 090427Z 33002KT 05/03 A3032 RMK A01 T00540033  RH  086%=      5-min Rain = 0
KLA1 090428Z 33001KT 05/03 A3031 RMK A01 T00540032  RH  086%=      5-min Rain = 0
KLA1 090429Z 33002KT 05/03 A3031 RMK A01 T00540032  RH  086%=      5-min Rain = 0
KLA1 090430Z 34002KT 06/03 A3031 RMK A01 T00550033  RH  086%=      5-min Rain = 0
KLA1 090431Z 35002KT 05/03 A3031 RMK A01 T00540032  RH  086%=      5-min Rain = 0
KLA1 090432Z 34002KT 05/03 A3032 RMK A01 T00540033  RH  086%=      5-min Rain = 0
KLA1 090433Z 34001KT 06/03 A3032 RMK A01 T00550033  RH  086%=      5-min Rain = 0
KLA1 090434Z 34002KT 05/03 A3032 RMK A01 T00540033  RH  086%=      5-min Rain = 0
KLA1 090435Z 32001KT 05/03 A3032 RMK A01 T00540033  RH  086%=      5-min Rain = 0
KLA1 090436Z 32001KT 05/03 A3032 RMK A01 T00540033  RH  086%=      5-min Rain = 0
KLA1 090437Z 32002KT 05/03 A3032 RMK A01 T00540032  RH  086%=      5-min Rain = 0
KLA1 090438Z 32001KT 05/03 A3032 RMK A01 T00540032  RH  086%=      5-min Rain = 0
KLA1 090439Z 32001KT 05/03 A3032 RMK A01 T00540032  RH  086%=      5-min Rain = 0
KLA1 090440Z 32000KT 05/03 A3032 RMK A01 T00530032  RH  086%=      5-min Rain = 0
KLA1 090441Z 33001KT 05/03 A3032 RMK A01 T00530032  RH  087%=      5-min Rain = 0
KLA1 090442Z 33000KT 05/03 A3032 RMK A01 T00530033  RH  087%=      5-min Rain = 0
KLA1 090443Z 33000KT 05/03 A3032 RMK A01 T00520033  RH  087%=      5-min Rain = 0
KLA1 090444Z 33001KT 05/03 A3032 RMK A01 T00520033  RH  088%=      5-min Rain = 0
KLA1 090445Z 32002KT 05/03 A3032 RMK A01 T00510033  RH  088%=      5-min Rain = 0
KLA1 090446Z 32002KT 05/03 A3032 RMK A01 T00510033  RH  088%=      5-min Rain = 0
KLA1 090447Z 29001KT 05/03 A3032 RMK A01 T00500033  RH  088%=      5-min Rain = 0
KLA1 090448Z 26002KT 05/03 A3032 RMK A01 T00500032  RH  088%=      5-min Rain = 0
KLA1 090449Z 26002KT 05/03 A3032 RMK A01 T00490033  RH  089%=      5-min Rain = 0
KLA1 090450Z 26002KT 05/03 A3032 RMK A01 T00490033  RH  089%=      5-min Rain = 0
KLA1 090451Z 26002KT 05/03 A3032 RMK A01 T00480032  RH  090%=      5-min Rain = 0
KLA1 090452Z 26002KT 05/03 A3032 RMK A01 T00470032  RH  090%=      5-min Rain = 0
KLA1 090453Z 26002KT 05/03 A3032 RMK A01 T00470032  RH  090%=      5-min Rain = 0
KLA1 090454Z 25002KT 05/03 A3032 RMK A01 T00470032  RH  090%=      5-min Rain = 0
KLA1 090455Z 25002KT 05/03 A3032 RMK A01 T00460032  RH  090%=      5-min Rain = 0
KLA1 090456Z 25001KT 05/03 A3032 RMK A01 T00460032  RH  091%=      5-min Rain = 0
KLA1 090457Z 25001KT 05/03 A3032 RMK A01 T00460032  RH  091%=      5-min Rain = 0
KLA1 090458Z 26001KT 05/03 A3032 RMK A01 T00460032  RH  091%=      5-min Rain = 0
KLA1 090459Z 27001KT 05/03 A3032 RMK A01 T00460032  RH  091%=      5-min Rain = 0
KLA1 090500Z 26002KT 05/03 A3032 RMK A01 T00460032  RH  091%=      5-min Rain = 0
KLA1 090501Z 26002KT 05/03 A3032 RMK A01 T00450032  RH  091%=      5-min Rain = 0
KLA1 090502Z 26002KT 05/03 A3032 RMK A01 T00460032  RH  091%=      5-min Rain = 0
KLA1 090503Z 27002KT 05/03 A3032 RMK A01 T00460031  RH  091%=      5-min Rain = 0
KLA1 090504Z 27001KT 05/03 A3032 RMK A01 T00460032  RH  091%=      5-min Rain = 0
KLA1 090505Z 27001KT 05/03 A3032 RMK A01 T00460032  RH  091%=      5-min Rain = 0
KLA1 090506Z 27001KT 05/03 A3032 RMK A01 T00450032  RH  091%=      5-min Rain = 0
KLA1 090507Z 27001KT 05/03 A3033 RMK A01 T00450031  RH  091%=      5-min Rain = 0
KLA1 090508Z 27001KT 04/03 A3033 RMK A01 T00440031  RH  091%=      5-min Rain = 0
KLA1 090509Z 28001KT 04/03 A3033 RMK A01 T00440031  RH  092%=      5-min Rain = 0
KLA1 090510Z 28001KT 04/03 A3033 RMK A01 T00440032  RH  092%=      5-min Rain = 0
KLA1 090511Z 29001KT 04/03 A3033 RMK A01 T00440032  RH  092%=      5-min Rain = 0
KLA1 090512Z 33001KT 04/03 A3033 RMK A01 T00430032  RH  092%=      5-min Rain = 0
KLA1 090513Z 33001KT 04/03 A3033 RMK A01 T00420031  RH  093%=      5-min Rain = 0
KLA1 090514Z 33001KT 04/03 A3033 RMK A01 T00410031  RH  093%=      5-min Rain = 0
KLA1 090515Z 00000KT 04/03 A3033 RMK A01 T00410031  RH  093%=      5-min Rain = 0
KLA1 090516Z 00000KT 04/03 A3033 RMK A01 T00410031  RH  093%=      5-min Rain = 0
KLA1 090517Z 00000KT 04/03 A3033 RMK A01 T00410031  RH  094%=      5-min Rain = 0
KLA1 090518Z 00000KT 04/03 A3033 RMK A01 T00400031  RH  094%=      5-min Rain = 0
KLA1 090519Z 00000KT 04/03 A3033 RMK A01 T00400031  RH  094%=      5-min Rain = 0
KLA1 090520Z 00000KT 04/03 A3033 RMK A01 T00400031  RH  094%=      5-min Rain = 0
KLA1 090521Z 00000KT 04/03 A3033 RMK A01 T00400031  RH  094%=      5-min Rain = 0
KLA1 090522Z 00000KT 04/03 A3033 RMK A01 T00400031  RH  094%=      5-min Rain = 0
KLA1 090523Z 00000KT 04/03 A3033 RMK A01 T00400031  RH  094%=      5-min Rain = 0
KLA1 090524Z 27001KT 04/03 A3033 RMK A01 T00400031  RH  094%=      5-min Rain = 0
KLA1 090525Z 26002KT 04/03 A3033 RMK A01 T00400032  RH  095%=      5-min Rain = 0
KLA1 090526Z 26001KT 04/03 A3033 RMK A01 T00400033  RH  095%=      5-min Rain = 0
KLA1 090527Z 26001KT 04/03 A3033 RMK A01 T00400033  RH  095%=      5-min Rain = 0
KLA1 090528Z 26001KT 04/03 A3033 RMK A01 T00400034  RH  096%=      5-min Rain = 0
KLA1 090529Z 26001KT 04/03 A3033 RMK A01 T00400033  RH  096%=      5-min Rain = 0
KLA1 090530Z 27001KT 04/03 A3033 RMK A01 T00400034  RH  096%=      5-min Rain = 0
KLA1 090531Z 27001KT 04/03 A3033 RMK A01 T00400034  RH  096%=      5-min Rain = 0
KLA1 090532Z 26001KT 04/03 A3033 RMK A01 T00400034  RH  096%=      5-min Rain = 0
KLA1 090533Z 25001KT 04/03 A3033 RMK A01 T00400034  RH  096%=      5-min Rain = 0
KLA1 090534Z 25002KT 04/04 A3033 RMK A01 T00400035  RH  096%=      5-min Rain = 0
KLA1 090535Z 25002KT 04/04 A3033 RMK A01 T00400035  RH  096%=      5-min Rain = 0
KLA1 090536Z 25001KT 04/04 A3033 RMK A01 T00400035  RH  096%=      5-min Rain = 0
KLA1 090537Z 26001KT 04/04 A3033 RMK A01 T00400035  RH  096%=      5-min Rain = 0
KLA1 090538Z 28001KT 04/04 A3033 RMK A01 T00400035  RH  096%=      5-min Rain = 0
KLA1 090539Z 28001KT 04/03 A3033 RMK A01 T00400034  RH  096%=      5-min Rain = 0
KLA1 090540Z 28001KT 04/04 A3033 RMK A01 T00400035  RH  096%=      5-min Rain = 0
KLA1 090541Z 29001KT 04/04 A3033 RMK A01 T00410035  RH  096%=      5-min Rain = 0
KLA1 090542Z 29001KT 04/04 A3033 RMK A01 T00410035  RH  096%=      5-min Rain = 0
KLA1 090543Z 29001KT 04/03 A3033 RMK A01 T00410034  RH  096%=      5-min Rain = 0
KLA1 090544Z 29001KT 04/03 A3033 RMK A01 T00410034  RH  095%=      5-min Rain = 0
KLA1 090545Z 29001KT 04/03 A3033 RMK A01 T00410034  RH  095%=      5-min Rain = 0
KLA1 090546Z 30001KT 04/03 A3033 RMK A01 T00410034  RH  095%=      5-min Rain = 0
KLA1 090547Z 30001KT 04/03 A3033 RMK A01 T00400033  RH  095%=      5-min Rain = 0
KLA1 090548Z 33000KT 04/03 A3033 RMK A01 T00400033  RH  095%=      5-min Rain = 0
KLA1 090549Z 33000KT 04/03 A3033 RMK A01 T00400032  RH  095%=      5-min Rain = 0
KLA1 090550Z 00000KT 04/03 A3033 RMK A01 T00400033  RH  095%=      5-min Rain = 0
KLA1 090551Z 00000KT 04/03 A3033 RMK A01 T00400033  RH  095%=      5-min Rain = 0
KLA1 090552Z 00000KT 04/03 A3033 RMK A01 T00390032  RH  096%=      5-min Rain = 0
KLA1 090553Z 00000KT 04/03 A3033 RMK A01 T00390033  RH  096%=      5-min Rain = 0
KLA1 090554Z 02001KT 04/03 A3033 RMK A01 T00390033  RH  096%=      5-min Rain = 0
KLA1 090555Z 02002KT 04/03 A3033 RMK A01 T00390033  RH  096%=      5-min Rain = 0
KLA1 090556Z 02001KT 04/03 A3033 RMK A01 T00390033  RH  096%=      5-min Rain = 0
KLA1 090557Z 02002KT 04/03 A3033 RMK A01 T00390033  RH  096%=      5-min Rain = 0
KLA1 090558Z 02001KT 04/03 A3033 RMK A01 T00390033  RH  096%=      5-min Rain = 0
KLA1 090559Z 02001KT 04/03 A3033 RMK A01 T00390033  RH  096%=      5-min Rain = 0

Page generated in 0.1447 seconds.